Latitude: N 50° 09' 49" Longitude: W 05° 11' 53" Elevation: 168m ASL

There are 12 visitors online

Adverts

<- Previous Day | Today | Next Day ->

All Data for 13 December 2017

Time
A - D
Temp
A - D
Dew Point
A - D
Humidity
A - D
Pressure
A - D
Wind
A - D
Wind Dir Gust
A - D
Rain Rate
A - D
Rain Total
00:00 8.0 7.9 99 1006.0 7.6 W 10.7 0.0 0.0
00:01 8.0 7.9 99 1006.1 7.6 W 10.7 0.0 0.0
00:03 8.0 7.9 99 1006.1 7.6 W 10.7 0.0 0.0
00:04 8.0 7.9 99 1006.0 7.6 W 10.7 0.0 0.0
00:06 8.0 7.9 99 1006.2 7.6 W 8.3 0.0 0.0
00:07 8.0 7.9 99 1006.1 6.0 W 8.3 0.0 0.0
00:08 8.0 7.9 99 1006.0 6.9 NW 7.6 0.0 0.0
00:10 7.9 7.8 99 1006.2 9.8 W 9.8 0.0 0.0
00:11 8.0 7.9 99 1006.3 6.0 WSW 9.8 0.0 0.0
00:13 7.9 7.8 99 1006.3 8.3 NW 9.8 0.0 0.0
00:14 8.0 7.9 99 1006.2 6.9 W 9.8 0.0 0.0
00:15 8.0 7.9 99 1006.2 6.9 W 9.8 0.0 0.0
00:16 8.0 7.9 99 1006.2 6.0 WSW 9.8 0.0 0.0
00:17 8.0 7.9 99 1006.2 6.0 W 9.8 0.0 0.0
00:18 7.9 7.8 99 1006.2 6.0 WSW 9.8 0.0 0.0
00:19 8.0 7.9 99 1006.3 5.4 W 9.8 0.0 0.0
00:20 8.0 7.9 99 1006.2 7.6 W 8.3 0.0 0.0
00:21 8.0 7.9 99 1006.2 6.9 NW 8.3 0.0 0.0
00:22 8.0 7.9 99 1006.2 6.0 WSW 8.3 0.0 0.0
00:23 8.0 7.9 99 1006.2 8.3 NW 8.3 0.0 0.0
00:24 8.0 7.9 99 1006.1 8.3 WSW 9.8 0.0 0.0
00:25 8.0 7.9 99 1005.9 10.7 NW 10.7 0.0 0.0
00:26 8.0 7.9 99 1006.1 5.4 W 10.7 0.0 0.0
00:27 8.0 7.9 99 1006.1 6.0 W 10.7 0.0 0.0
00:28 8.0 7.9 99 1006.1 7.6 WSW 10.7 0.0 0.0
00:29 8.0 7.9 99 1006.0 5.4 NW 10.7 0.0 0.0
00:30 8.0 7.9 99 1006.0 4.5 W 10.7 0.0 0.0
00:31 8.0 7.9 99 1005.9 4.5 W 10.7 0.0 0.0
00:32 8.0 7.9 99 1006.2 7.6 WNW 10.7 0.0 0.0
00:33 8.0 7.9 99 1006.0 4.5 WSW 10.7 0.0 0.0
00:35 7.9 7.8 99 1006.2 5.4 W 10.7 0.0 0.0
00:36 7.9 7.8 99 1006.0 4.5 W 10.7 0.0 0.0
00:37 8.0 7.9 99 1006.0 7.6 WSW 10.7 0.0 0.0
00:38 7.9 7.8 99 1006.2 7.6 W 10.7 0.0 0.0
00:39 7.9 7.8 99 1006.2 7.6 W 10.7 0.0 0.0
00:40 7.9 7.8 99 1006.4 6.0 W 10.7 0.0 0.0
00:41 7.9 7.8 99 1006.2 6.9 W 10.7 0.0 0.0
00:42 7.9 7.8 99 1006.3 6.0 WSW 10.7 0.0 0.0
00:43 7.9 7.8 99 1006.2 5.4 WSW 10.7 0.0 0.0
00:44 7.9 7.8 99 1006.2 7.6 W 10.7 0.0 0.0
00:45 7.9 7.8 99 1006.1 5.4 W 9.2 0.0 0.0
00:46 7.9 7.8 99 1006.2 7.6 W 9.2 0.0 0.0
00:47 7.9 7.8 99 1006.3 6.9 W 9.2 0.0 0.0
00:48 7.9 7.8 99 1006.4 9.8 W 9.8 0.0 0.0
00:49 7.9 7.8 99 1006.2 8.3 WSW 9.8 0.0 0.0
00:50 7.9 7.8 99 1006.3 8.3 W 9.8 0.0 0.0
00:51 7.9 7.8 99 1006.2 9.8 WSW 9.8 0.0 0.0
00:53 7.9 7.8 99 1006.2 13.6 W 13.6 0.0 0.0
00:54 7.9 7.8 99 1006.2 9.8 WSW 13.6 0.0 0.0
00:55 8.0 7.9 99 1006.1 9.2 WSW 13.6 0.0 0.0
00:56 8.0 7.9 99 1006.2 7.6 WSW 13.6 0.0 0.0
00:57 8.0 7.9 99 1006.2 6.9 W 13.6 0.0 0.0
00:58 8.0 7.9 99 1006.2 9.8 W 13.6 0.0 0.0
00:59 8.0 7.9 99 1006.2 9.2 WSW 13.6 0.0 0.0
01:00 8.0 7.9 99 1006.2 8.3 WNW 13.6 0.0 0.0
01:01 8.0 7.9 99 1006.2 8.3 WNW 13.6 0.0 0.0
01:02 8.0 7.9 99 1006.2 8.3 WNW 13.6 0.0 0.0
01:03 8.0 7.9 99 1006.2 8.3 WNW 11.4 0.0 0.0
01:05 8.0 7.9 99 1006.2 8.3 WNW 10.7 0.0 0.0
01:06 8.0 7.9 99 1006.2 7.6 WSW 10.7 0.0 0.0
01:07 8.0 7.9 99 1006.2 6.9 W 9.8 0.0 0.0
01:08 7.9 7.8 99 1006.2 6.0 W 9.8 0.0 0.0
01:09 7.9 7.8 99 1006.2 6.9 WSW 9.2 0.0 0.0
01:10 7.9 7.8 99 1006.1 6.9 W 8.3 0.0 0.0
01:12 7.9 7.8 99 1006.1 6.0 WSW 8.3 0.0 0.0
01:13 7.9 7.8 99 1006.0 6.0 WSW 8.3 0.0 0.0
01:14 7.9 7.8 99 1006.1 4.5 W 8.3 0.0 0.0
01:15 7.8 7.7 99 1006.0 9.8 WSW 9.8 0.0 0.0
01:16 7.8 7.7 99 1006.0 7.6 W 9.8 0.0 0.0
01:17 7.8 7.7 99 1006.0 6.9 WSW 9.8 0.0 0.0
01:18 7.8 7.7 99 1006.1 6.0 WSW 9.8 0.0 0.0
01:19 7.8 7.7 99 1005.9 4.5 W 9.8 0.0 0.0
01:20 7.8 7.7 99 1005.8 5.4 WSW 9.8 0.0 0.0
01:21 7.7 7.6 99 1005.9 6.0 WSW 9.8 0.0 0.0
01:23 7.7 7.6 99 1005.8 7.6 N 9.8 0.0 0.0
01:24 7.7 7.6 99 1005.9 7.6 WSW 9.8 0.0 0.0
01:25 7.7 7.6 99 1005.7 5.4 W 9.8 0.0 0.0
01:26 7.7 7.6 99 1005.7 7.6 WSW 8.3 0.0 0.0
01:27 7.7 7.6 99 1005.8 6.9 WSW 8.3 0.0 0.0
01:28 7.7 7.6 99 1005.8 10.7 WSW 10.7 0.0 0.0
01:29 7.7 7.6 99 1005.8 6.9 WSW 10.7 0.0 0.0
01:30 7.7 7.6 99 1005.9 6.0 WSW 10.7 0.0 0.0
01:31 7.7 7.6 99 1005.9 6.9 WSW 10.7 0.0 0.0
01:32 7.6 7.5 99 1005.7 6.9 WSW 10.7 0.0 0.0
01:33 7.6 7.5 99 1005.9 5.4 W 10.7 0.0 0.0
01:34 7.6 7.5 99 1005.8 6.9 WSW 10.7 0.0 0.0
01:35 7.6 7.5 99 1005.9 5.4 W 10.7 0.0 0.0
01:36 7.6 7.5 99 1005.8 6.0 W 10.7 0.0 0.0
01:37 7.6 7.5 99 1005.7 5.4 W 10.7 0.0 0.0
01:38 7.6 7.5 99 1005.8 3.8 WSW 7.6 0.0 0.0
01:39 7.6 7.5 99 1005.8 5.4 WSW 7.6 0.0 0.0
01:40 7.6 7.5 99 1005.8 6.0 WSW 7.6 0.0 0.0
01:41 7.6 7.5 99 1005.7 6.0 WSW 7.6 0.0 0.0
01:42 7.6 7.5 99 1005.7 6.0 WSW 6.9 0.0 0.0
01:44 7.6 7.5 99 1005.9 3.8 WSW 6.9 0.0 0.0
01:45 7.6 7.5 99 1005.8 6.0 W 6.9 0.0 0.0
01:46 7.6 7.5 99 1005.8 4.5 W 6.9 0.0 0.0
01:47 7.6 7.5 99 1005.8 5.4 W 6.0 0.0 0.0
01:48 7.6 7.5 99 1005.8 6.9 WSW 6.9 0.0 0.0
01:49 7.6 7.5 99 1005.9 4.5 WSW 6.9 0.0 0.0
01:50 7.6 7.5 99 1005.7 5.4 WSW 6.9 0.0 0.0
01:51 7.6 7.5 99 1005.7 7.6 WSW 7.6 0.0 0.0
01:52 7.6 7.5 99 1005.7 9.2 WSW 9.2 0.0 0.0
01:53 7.6 7.5 99 1005.8 9.2 WSW 9.2 0.0 0.0
01:54 7.6 7.5 99 1005.9 7.6 WSW 9.8 0.0 0.0
01:55 7.6 7.5 99 1005.7 7.6 WSW 9.8 0.0 0.0
01:56 7.6 7.5 99 1005.8 4.5 WSW 9.8 0.0 0.0
01:57 7.6 7.5 99 1005.6 5.4 W 9.8 0.0 0.0
01:58 7.6 7.5 99 1005.8 6.0 W 9.8 0.0 0.0
01:59 7.6 7.5 99 1005.8 6.0 WSW 9.8 0.0 0.0
02:00 7.6 7.5 99 1005.8 6.9 WSW 9.8 0.0 0.0
02:01 7.6 7.5 99 1005.7 6.9 WSW 9.8 0.0 0.0
02:02 7.6 7.5 99 1005.7 6.9 WSW 9.8 0.0 0.0
02:03 7.6 7.5 99 1005.8 6.9 WSW 9.8 0.0 0.0
02:04 7.6 7.5 99 1005.8 6.9 WSW 7.6 0.0 0.0
02:05 7.6 7.5 99 1005.8 6.9 WSW 6.9 0.0 0.0
02:07 7.7 7.6 99 1005.8 5.4 WSW 6.9 0.0 0.0
02:08 7.7 7.6 99 1005.6 6.9 WSW 6.9 0.0 0.0
02:09 7.7 7.6 99 1005.7 6.9 WSW 6.9 0.0 0.0
02:10 7.7 7.6 99 1005.7 5.4 WSW 7.6 0.0 0.0
02:11 7.7 7.6 99 1005.8 6.0 WSW 7.6 0.0 0.0
02:12 7.7 7.6 99 1005.7 8.3 WSW 8.3 0.0 0.0
02:13 7.7 7.6 99 1005.8 6.9 W 8.3 0.0 0.0
02:14 7.7 7.6 99 1005.7 6.0 W 8.3 0.0 0.0
02:15 7.7 7.6 99 1005.7 8.3 WSW 8.3 0.0 0.0
02:16 7.7 7.6 99 1005.8 5.4 WSW 8.3 0.0 0.0
02:17 7.7 7.6 99 1005.7 6.9 WSW 8.3 0.0 0.0
02:18 7.7 7.6 99 1005.7 12.1 WSW 12.1 0.0 0.0
02:19 7.7 7.6 99 1005.7 10.7 WSW 12.1 0.0 0.0
02:20 7.7 7.6 99 1005.7 8.3 W 12.1 0.0 0.0
02:21 7.7 7.6 99 1005.8 7.6 WSW 12.1 0.0 0.0
02:22 7.7 7.6 99 1005.7 10.7 WSW 12.1 0.0 0.0
02:23 7.7 7.6 99 1005.9 9.2 WSW 12.1 0.0 0.0
02:24 7.7 7.6 99 1005.8 9.8 W 12.1 0.0 0.0
02:25 7.7 7.6 99 1005.8 10.7 WSW 12.1 0.0 0.0
02:26 7.7 7.6 99 1005.9 9.2 WSW 12.1 0.0 0.0
02:27 7.7 7.6 99 1005.8 10.7 W 12.1 0.0 0.0
02:28 7.8 7.7 99 1005.8 7.6 WSW 11.4 0.0 0.0
02:30 7.8 7.7 99 1005.8 12.1 NW 12.1 0.0 0.0
02:31 7.7 7.6 99 1006.0 10.7 W 12.1 0.0 0.0
02:36 7.8 7.7 99 1005.7 10.7 WSW 11.4 0.0 0.0
02:37 7.8 7.7 99 1005.8 9.2 NW 11.4 0.0 0.0
02:38 7.8 7.7 99 1005.8 12.1 WSW 12.1 0.0 0.0
02:39 7.9 7.8 99 1005.8 12.1 NW 12.1 0.0 0.0
02:40 7.8 7.7 99 1005.9 9.8 WSW 12.1 0.0 0.0
02:41 7.9 7.8 99 1006.0 9.2 W 12.1 0.0 0.0
02:42 7.8 7.7 99 1005.9 10.7 W 12.1 0.0 0.0
02:43 7.9 7.8 99 1005.9 11.4 WSW 12.1 0.0 0.0
02:44 7.9 7.8 99 1005.9 10.7 WSW 12.1 0.0 0.0
02:45 7.8 7.7 99 1006.0 12.1 NW 12.1 0.0 0.0
02:46 7.9 7.8 99 1005.8 15.2 NW 15.2 0.0 0.0
02:47 7.9 7.8 99 1005.8 14.5 NW 15.2 0.0 0.0
02:48 7.9 7.8 99 1005.7 11.4 NW 15.2 0.0 0.0
02:49 7.9 7.8 99 1005.8 11.4 WSW 15.2 0.0 0.0
02:50 7.9 7.8 99 1005.8 8.3 WSW 15.2 0.0 0.0
02:51 7.9 7.8 99 1005.8 10.7 SW 15.2 0.0 0.0
02:53 7.9 7.8 99 1005.9 14.5 WSW 15.2 0.0 0.0
02:54 7.9 7.8 99 1005.8 9.8 W 15.2 0.0 0.0
02:55 7.9 7.8 99 1005.7 10.7 WSW 15.2 0.0 0.0
02:56 7.9 7.8 99 1005.7 11.4 NW 15.2 0.0 0.0
02:57 7.9 7.8 99 1005.7 9.8 WSW 14.5 0.0 0.0
02:58 7.9 7.8 99 1005.8 9.8 WSW 14.5 0.0 0.0
02:59 7.9 7.8 99 1005.7 11.4 WSW 14.5 0.0 0.0
03:00 7.9 7.8 99 1005.8 11.4 NW 14.5 0.0 0.0
03:01 7.9 7.8 99 1005.9 11.4 NW 14.5 0.0 0.0
03:02 7.9 7.8 99 1005.8 11.4 NW 14.5 0.0 0.0
03:03 7.9 7.8 99 1005.7 11.4 NW 11.4 0.0 0.0
03:04 7.9 7.8 99 1006.0 11.4 NW 11.4 0.0 0.0
03:05 7.9 7.8 99 1005.8 11.4 NW 11.4 0.0 0.0
03:07 8.0 7.9 99 1005.8 9.2 WSW 11.4 0.0 0.0
03:08 8.0 7.9 99 1005.9 9.2 WSW 11.4 0.0 0.0
03:09 8.0 7.9 99 1005.8 9.2 NW 11.4 0.0 0.0
03:10 7.9 7.8 99 1005.9 11.4 S 11.4 0.0 0.0
03:11 8.0 7.9 99 1006.0 9.2 WNW 11.4 0.0 0.0
03:12 7.9 7.8 99 1005.9 9.8 WSW 11.4 0.0 0.0
03:13 8.0 7.9 99 1005.7 9.2 S 11.4 0.0 0.0
03:14 8.0 7.9 99 1005.9 9.8 WSW 11.4 0.0 0.0
03:15 8.0 7.9 99 1005.9 9.8 W 11.4 0.0 0.0
03:16 8.0 7.9 99 1005.7 8.3 WSW 11.4 0.0 0.0
03:17 8.0 7.9 99 1005.9 8.3 S 11.4 0.0 0.0
03:18 8.0 7.9 99 1005.8 7.6 S 11.4 0.0 0.0
03:19 8.0 7.9 99 1005.8 6.9 N 11.4 0.0 0.0
03:20 8.0 7.9 99 1006.0 9.8 S 10.7 0.0 0.0
03:21 8.0 7.9 99 1005.9 8.3 S 9.8 0.0 0.0
03:22 8.0 7.9 99 1005.8 7.6 N 9.8 0.0 0.0
03:24 8.0 7.9 99 1005.8 6.9 W 9.8 0.0 0.0
03:25 7.9 7.8 99 1005.8 9.2 N 9.8 0.0 0.0
03:26 7.9 7.8 99 1005.8 8.3 S 9.8 0.0 0.0
03:27 7.9 7.8 99 1005.7 9.2 WSW 9.8 0.0 0.0
03:28 7.9 7.8 99 1005.9 9.8 S 9.8 0.0 0.0
03:29 7.9 7.8 99 1005.9 9.2 S 9.8 0.0 0.0
03:30 7.9 7.8 99 1005.8 9.2 S 11.4 0.0 0.0
03:31 7.9 7.8 99 1005.7 7.6 WSW 11.4 0.0 0.0
03:32 7.9 7.8 99 1005.7 8.3 WSW 11.4 0.0 0.0
03:33 7.9 7.8 99 1005.7 7.6 SE 11.4 0.0 0.0
03:34 7.9 7.8 99 1005.8 11.4 WSW 11.4 0.0 0.0
03:35 7.9 7.8 99 1005.7 8.3 WSW 11.4 0.0 0.0
03:36 7.9 7.8 99 1005.6 7.6 WSW 11.4 0.0 0.0
03:37 7.9 7.8 99 1005.8 6.9 WSW 11.4 0.0 0.0
03:38 7.9 7.8 99 1005.7 6.9 S 11.4 0.0 0.0
03:39 7.9 7.8 99 1005.8 7.6 S 11.4 0.0 0.0
03:40 7.9 7.8 99 1005.7 9.2 S 11.4 0.0 0.0
03:41 7.8 7.7 99 1005.7 8.3 WSW 11.4 0.0 0.0
03:43 7.8 7.7 99 1005.5 6.9 WSW 11.4 0.0 0.0
03:44 7.8 7.7 99 1005.5 6.0 S 9.8 0.0 0.0
03:45 7.9 7.8 99 1005.7 8.3 S 9.2 0.0 0.0
03:46 7.8 7.7 99 1005.6 8.3 WSW 9.2 0.0 0.0
03:47 7.8 7.7 99 1005.5 8.3 S 9.2 0.0 0.0
03:48 7.8 7.7 99 1005.6 6.0 WSW 9.2 0.0 0.0
03:49 7.8 7.7 99 1005.6 6.9 S 9.2 0.0 0.0
03:50 7.8 7.7 99 1005.7 8.3 S 9.2 0.0 0.0
03:51 7.8 7.7 99 1005.6 8.3 S 9.2 0.0 0.0
03:52 7.8 7.7 99 1005.7 6.0 WSW 9.2 0.0 0.0
03:53 7.8 7.7 99 1005.4 9.2 WSW 9.2 0.0 0.0
03:54 7.8 7.7 99 1005.5 9.8 WSW 9.8 0.0 0.0
03:55 7.8 7.7 99 1005.4 6.9 WSW 9.8 0.0 0.0
03:56 7.7 7.6 99 1005.5 7.6 W 9.8 0.0 0.0
03:57 7.7 7.6 99 1005.6 8.3 WSW 9.8 0.0 0.0
03:58 7.7 7.6 99 1005.5 9.2 S 9.8 0.0 0.0
03:59 7.7 7.6 99 1005.5 8.3 WSW 9.8 0.0 0.0
04:00 7.7 7.6 99 1005.5 7.6 S 9.8 0.0 0.0
04:01 7.7 7.6 99 1005.4 7.6 S 9.8 0.0 0.0
04:02 7.7 7.6 99 1005.4 7.6 S 9.8 0.0 0.0
04:03 7.7 7.6 99 1005.4 7.6 S 9.2 0.0 0.0
04:04 7.7 7.6 99 1005.5 7.6 S 9.2 0.0 0.0
04:06 7.7 7.6 99 1005.6 7.6 S 9.2 0.0 0.0
04:07 7.7 7.6 99 1005.4 9.2 WSW 9.2 0.0 0.0
04:09 7.7 7.6 99 1005.5 8.3 S 9.2 0.0 0.0
04:10 7.7 7.6 99 1005.4 8.3 WSW 9.2 0.0 0.0
04:11 7.7 7.6 99 1005.3 6.9 WSW 9.2 0.0 0.0
04:12 7.7 7.6 99 1005.4 6.9 WSW 9.2 0.0 0.0
04:13 7.7 7.6 99 1005.4 6.0 WSW 9.2 0.0 0.0
04:14 7.7 7.6 99 1005.4 4.5 WSW 9.2 0.0 0.0
04:15 7.7 7.6 99 1005.4 6.9 NW 9.2 0.0 0.0
04:16 7.7 7.6 99 1005.5 9.8 WSW 9.8 0.0 0.0
04:17 7.7 7.6 99 1005.5 7.6 WSW 9.8 0.0 0.0
04:18 7.7 7.6 99 1005.5 13.6 WSW 13.6 0.0 0.0
04:19 7.7 7.6 99 1005.4 9.2 WSW 13.6 0.0 0.0
04:20 7.7 7.6 99 1005.4 9.8 WSW 13.6 0.0 0.0
04:21 7.8 7.7 99 1005.4 14.5 WSW 14.5 0.0 0.0
04:22 7.8 7.7 99 1005.2 10.7 WSW 14.5 0.0 0.1
04:23 7.8 7.7 99 1005.4 11.4 WSW 14.5 0.8 0.1
04:24 7.8 7.7 99 1005.4 10.7 S 14.5 0.8 0.1
04:25 7.8 7.7 99 1005.5 9.8 WSW 14.5 0.8 0.1
04:26 7.9 7.8 99 1005.3 7.6 WSW 14.5 0.8 0.1
04:28 7.9 7.8 99 1005.3 8.3 W 14.5 0.0 0.1
04:29 7.9 7.8 99 1005.3 9.2 WSW 14.5 0.0 0.1
04:30 7.9 7.8 99 1005.3 10.7 S 14.5 0.0 0.1
04:31 7.9 7.8 99 1005.3 10.7 WSW 14.5 0.0 0.1
04:32 7.9 7.8 99 1005.4 8.3 WSW 11.4 0.0 0.1
04:33 7.9 7.8 99 1005.3 6.9 WSW 11.4 0.0 0.1
04:34 7.9 7.8 99 1005.2 9.2 WSW 10.7 0.0 0.1
04:35 7.9 7.8 99 1005.2 9.8 WSW 10.7 0.0 0.1
04:36 7.9 7.8 99 1005.2 9.2 WSW 10.7 0.0 0.1
04:37 7.9 7.8 99 1005.3 11.4 WSW 11.4 0.0 0.1
04:38 7.9 7.8 99 1005.2 13.0 WSW 14.5 0.0 0.1
04:39 7.9 7.8 99 1005.1 11.4 WSW 14.5 0.0 0.1
04:40 7.9 7.8 99 1005.2 9.2 WSW 14.5 0.0 0.1
04:41 7.9 7.8 99 1005.1 9.2 WSW 14.5 0.0 0.1
04:42 7.9 7.8 99 1004.9 10.7 WSW 14.5 0.0 0.1
04:43 8.0 7.9 99 1005.1 9.2 WSW 14.5 0.0 0.1
04:44 8.0 7.9 99 1005.1 10.7 WSW 14.5 0.0 0.1
04:45 8.0 7.9 99 1005.1 11.4 W 14.5 0.0 0.1
04:46 8.0 7.9 99 1005.1 8.3 WSW 14.5 0.0 0.1
04:47 8.0 7.9 99 1005.2 8.3 WSW 13.0 0.0 0.1
04:48 8.0 7.9 99 1005.0 12.1 WSW 13.0 0.0 0.1
04:50 8.0 7.9 99 1004.9 8.3 WSW 12.1 0.0 0.1
04:51 8.0 7.9 99 1005.0 8.3 WSW 12.1 0.0 0.1
04:52 8.0 7.9 99 1005.0 9.2 WSW 12.1 0.8 0.1
04:53 8.0 7.9 99 1005.0 9.2 WSW 12.1 0.8 0.1
04:54 8.0 7.9 99 1005.0 8.3 WSW 12.1 1.5 0.2
04:55 8.0 7.9 99 1004.9 11.4 WSW 12.1 2.3 0.3
04:56 8.0 7.9 99 1004.9 10.7 WSW 12.1 2.3 0.3
04:57 8.0 7.9 99 1005.0 9.8 S 12.1 1.5 0.3
04:58 8.0 7.9 99 1005.1 10.7 W 12.1 1.5 0.3
04:59 8.0 7.9 99 1005.1 9.8 WSW 11.4 0.8 0.3
05:00 8.0 7.9 99 1005.1 10.7 WSW 11.4 0.0 0.3
05:01 8.0 7.9 99 1004.9 8.3 WSW 11.4 0.0 0.3
05:02 8.0 7.9 99 1004.9 8.3 WSW 11.4 0.0 0.3
05:03 8.1 8.0 99 1004.9 9.8 W 13.6 0.8 0.3
05:04 8.1 8.0 99 1004.9 8.3 WSW 13.6 0.8 0.3
05:05 8.1 8.0 99 1004.9 6.9 WSW 13.6 0.8 0.3
05:07 8.1 8.0 99 1004.8 9.2 WSW 13.6 1.5 0.4
05:08 8.1 8.0 99 1005.0 6.9 WSW 13.6 0.8 0.4
05:10 8.1 8.0 99 1004.7 6.9 WSW 13.6 0.8 0.4
05:11 8.1 8.0 99 1004.8 7.6 WSW 13.6 0.8 0.4
05:12 8.1 8.0 99 1004.7 8.3 W 13.6 0.8 0.4
05:13 8.1 8.0 99 1004.8 5.4 W 13.6 0.8 0.4
05:14 8.1 8.0 99 1004.7 4.5 W 9.8 0.8 0.4
05:15 8.1 8.0 99 1004.6 4.5 W 9.8 0.8 0.4
05:16 8.1 8.0 99 1004.7 6.9 W 9.8 0.0 0.4
05:17 8.1 8.0 99 1004.6 6.0 WSW 9.8 0.0 0.4
05:18 8.1 8.0 99 1004.8 5.4 WSW 9.8 0.0 0.4
05:19 8.1 8.0 99 1004.7 11.4 WSW 11.4 0.0 0.4
05:20 8.1 8.0 99 1004.6 9.8 WSW 11.4 0.0 0.4
05:21 8.1 8.0 99 1004.7 7.6 WSW 11.4 0.0 0.4
05:22 8.1 8.0 99 1004.6 6.0 WSW 11.4 0.0 0.4
05:23 8.1 8.0 99 1004.6 11.4 WSW 11.4 0.0 0.4
05:24 8.1 8.0 99 1004.6 9.2 NW 11.4 0.0 0.4
05:25 8.1 8.0 99 1004.6 11.4 S 11.4 0.0 0.4
05:26 8.1 8.0 99 1004.6 9.2 WSW 11.4 0.0 0.4
05:27 8.1 8.0 99 1004.5 9.8 WSW 11.4 0.8 0.5
05:28 8.1 8.0 99 1004.6 8.3 W 11.4 0.8 0.5
05:30 8.2 8.1 99 1004.6 9.2 WSW 11.4 1.5 0.6
05:31 8.2 8.1 99 1004.5 9.8 W 11.4 3.0 0.7
05:32 8.1 8.0 99 1004.6 9.8 WSW 11.4 2.3 0.7
05:33 8.2 8.1 99 1004.7 9.2 WSW 11.4 2.3 0.8
05:34 8.2 8.1 99 1004.8 19.0 WSW 19.0 3.0 0.8
05:35 8.2 8.1 99 1004.8 16.8 SE 19.0 3.0 0.8
05:36 8.2 8.1 99 1004.7 18.3 WSW 19.0 2.3 0.9
05:37 8.2 8.1 99 1004.9 11.4 WSW 19.0 2.3 0.9
05:38 8.3 8.2 99 1004.7 13.6 WSW 19.0 2.3 0.9
05:39 8.3 8.2 99 1004.8 14.5 WSW 19.0 2.3 1.1
05:40 8.3 8.2 99 1004.8 13.6 WSW 19.0 3.0 1.1
05:41 8.3 8.2 99 1004.7 15.9 WSW 19.0 2.3 1.1
05:42 8.3 8.2 99 1004.5 15.2 WSW 19.0 3.0 1.2
05:43 8.3 8.2 99 1004.6 13.0 WSW 19.0 4.5 1.3
05:44 8.3 8.2 99 1004.4 15.9 NW 18.3 3.8 1.3
05:45 8.3 8.2 99 1004.7 15.2 WSW 18.3 3.0 1.3
05:46 8.3 8.2 99 1004.6 13.0 S 17.4 3.0 1.3
05:47 8.3 8.2 99 1004.5 9.8 W 17.4 3.0 1.4
05:48 8.3 8.2 99 1004.5 10.7 WSW 17.4 1.5 1.4
05:50 8.4 8.3 99 1004.4 9.2 W 15.9 0.8 1.4
05:51 8.3 8.2 99 1004.4 13.0 WSW 15.9 0.8 1.4
05:52 8.4 8.3 99 1004.6 10.7 WSW 15.9 0.0 1.4
05:53 8.4 8.3 99 1004.5 13.0 WSW 17.4 0.0 1.4
05:54 8.4 8.3 99 1004.4 11.4 WSW 17.4 0.0 1.4
05:55 8.4 8.3 99 1004.5 13.6 S 17.4 0.0 1.4
05:56 8.4 8.3 99 1004.5 13.6 WSW 17.4 0.0 1.4
05:57 8.4 8.3 99 1004.5 13.0 WSW 17.4 0.8 1.4
05:58 8.4 8.3 99 1004.5 19.7 WSW 19.7 0.8 1.4
05:59 8.4 8.3 99 1004.4 15.9 WSW 19.7 0.8 1.4
06:00 8.4 8.3 99 1004.5 15.2 WSW 19.7 0.8 1.4
06:01 8.5 8.4 99 1004.5 19.0 W 19.7 0.8 1.4
06:02 8.5 8.4 99 1004.4 19.0 W 19.7 0.0 1.4
06:03 8.5 8.4 99 1004.4 13.6 WSW 19.7 0.0 1.4
06:04 8.5 8.4 99 1004.3 14.5 WSW 19.7 0.0 1.4
06:05 8.5 8.4 99 1004.5 13.6 WSW 19.7 0.0 1.4
06:07 8.5 8.4 99 1004.4 13.0 WSW 19.7 0.0 1.4
06:09 8.5 8.4 99 1004.1 13.6 WNW 19.0 0.0 1.4
06:10 8.5 8.4 99 1004.3 12.1 WSW 19.0 0.0 1.4
06:11 8.5 8.4 99 1004.3 12.1 W 19.0 0.0 1.4
06:12 8.5 8.4 99 1004.4 10.7 WSW 14.5 0.0 1.4
06:13 8.5 8.4 99 1004.3 11.4 WSW 14.5 0.0 1.4
06:14 8.5 8.4 99 1004.3 13.6 WSW 14.5 0.0 1.4
06:15 8.5 8.4 99 1004.2 9.8 WSW 13.6 0.0 1.4
06:17 8.5 8.4 99 1004.1 13.6 WSW 13.6 0.0 1.4
06:18 8.5 8.4 99 1004.2 10.7 WSW 13.6 0.0 1.4
06:19 8.4 8.3 99 1004.2 14.5 WSW 14.5 0.0 1.4
06:20 8.5 8.4 99 1004.2 11.4 WSW 14.5 0.0 1.4
06:21 8.5 8.4 99 1004.1 9.8 WSW 14.5 0.0 1.4
06:22 8.5 8.4 99 1004.1 8.3 S 14.5 0.0 1.4
06:23 8.5 8.4 99 1004.2 9.8 W 14.5 0.0 1.4
06:24 8.5 8.4 99 1004.1 10.7 WSW 14.5 0.0 1.4
06:25 8.5 8.4 99 1004.1 11.4 WSW 14.5 0.0 1.4
06:26 8.5 8.4 99 1004.2 11.4 WSW 14.5 0.0 1.4
06:27 8.5 8.4 99 1004.1 11.4 WSW 14.5 0.0 1.4
06:28 8.5 8.4 99 1004.1 9.2 WSW 14.5 0.0 1.4
06:29 8.5 8.4 99 1004.0 11.4 WSW 13.0 0.0 1.4
06:30 8.5 8.4 99 1004.2 11.4 WSW 13.0 0.0 1.4
06:31 8.5 8.4 99 1004.2 13.0 WSW 13.0 0.0 1.4
06:32 8.6 8.5 99 1004.0 9.8 WSW 13.0 0.0 1.4
06:34 8.6 8.5 99 1004.1 9.8 WSW 13.0 0.8 1.5
06:35 8.6 8.5 99 1004.0 11.4 W 13.0 0.8 1.5
06:36 8.6 8.5 99 1003.9 9.8 WSW 13.0 0.8 1.5
06:37 8.6 8.5 99 1003.9 14.5 NNW 14.5 0.8 1.5
06:38 8.6 8.5 99 1003.8 9.2 WSW 14.5 0.8 1.5
06:39 8.7 8.6 99 1003.8 8.3 WSW 14.5 0.0 1.5
06:40 8.6 8.5 99 1003.9 15.2 S 15.2 0.0 1.5
06:41 8.7 8.6 99 1003.8 13.0 WSW 15.2 0.0 1.5
06:42 8.7 8.6 99 1004.0 13.0 WSW 15.2 0.0 1.5
06:43 8.7 8.6 99 1003.9 11.4 W 15.2 0.0 1.5
06:44 8.7 8.6 99 1003.7 9.2 WSW 15.2 0.0 1.5
06:45 8.7 8.6 99 1003.8 13.0 WSW 15.2 0.0 1.5
06:46 8.7 8.6 99 1003.7 11.4 SW 15.2 0.0 1.5
06:47 8.8 8.7 99 1003.9 10.7 WSW 15.2 0.0 1.5
06:48 8.8 8.7 99 1003.8 13.0 WSW 15.2 0.0 1.5
06:49 8.8 8.7 99 1003.9 13.6 WSW 15.2 0.0 1.5
06:51 8.8 8.7 99 1003.9 9.8 E 13.6 0.0 1.5
06:52 8.8 8.7 99 1003.9 10.7 WSW 13.6 0.0 1.5
06:53 8.8 8.7 99 1003.7 13.6 S 13.6 0.0 1.5
06:54 8.8 8.7 99 1003.9 14.5 S 14.5 0.0 1.5
06:55 8.8 8.7 99 1003.8 11.4 S 14.5 0.0 1.5
06:56 8.8 8.7 99 1003.8 19.0 WSW 19.0 0.0 1.5
06:57 8.8 8.7 99 1003.8 15.2 WSW 19.0 0.0 1.5
06:58 8.8 8.7 99 1003.7 15.2 WSW 19.0 0.0 1.5
06:59 8.9 8.8 99 1003.7 13.6 WSW 19.0 0.0 1.5
07:00 8.9 8.8 99 1003.8 13.0 WSW 19.0 0.0 1.5
07:01 8.9 8.8 99 1003.9 15.2 WSW 19.0 0.0 1.5
07:02 8.9 8.8 99 1003.9 15.2 WSW 19.0 0.0 1.5
07:03 8.9 8.8 99 1003.7 15.2 WSW 19.0 0.0 1.5
07:04 8.8 8.7 99 1003.6 15.2 WSW 19.0 0.0 1.5
07:06 8.8 8.7 99 1003.7 15.2 WSW 19.7 0.0 1.5
07:07 8.8 8.7 99 1003.8 16.8 WSW 19.7 0.0 1.5
07:09 8.9 8.8 99 1003.6 13.6 WSW 19.7 0.0 1.5
07:10 8.9 8.8 99 1003.5 13.6 WSW 19.7 0.0 1.5
07:12 8.9 8.8 99 1003.4 12.1 S 19.7 0.0 1.5
07:13 8.8 8.7 99 1003.4 15.9 S 19.7 0.0 1.5
07:14 8.8 8.7 99 1003.4 13.6 S 19.7 0.0 1.5
07:15 8.8 8.7 99 1003.4 13.6 WNW 19.7 0.0 1.5
07:16 8.8 8.7 99 1003.4 15.2 WSW 19.0 0.0 1.5
07:17 8.8 8.7 99 1003.5 15.2 WSW 19.0 0.0 1.5
07:18 8.8 8.7 99 1003.5 15.2 WSW 16.8 0.0 1.5
07:19 8.8 8.7 99 1003.5 15.9 WSW 17.4 0.0 1.5
07:20 8.8 8.7 99 1003.4 16.8 S 17.4 0.0 1.5
07:21 8.8 8.7 99 1003.3 20.6 WSW 20.6 0.0 1.5
07:22 8.8 8.7 99 1003.4 15.9 WSW 20.6 0.0 1.5
07:23 8.8 8.7 99 1003.3 14.5 WSW 20.6 0.0 1.5
07:24 8.8 8.7 99 1003.3 19.7 WSW 20.6 0.0 1.5
07:25 8.8 8.7 99 1003.3 19.7 WSW 20.6 0.0 1.5
07:26 8.8 8.7 99 1003.5 14.5 S 20.6 0.0 1.5
07:28 8.8 8.7 99 1003.3 11.4 WSW 20.6 0.0 1.5
07:29 8.8 8.7 99 1003.4 13.6 WSW 20.6 0.0 1.5
07:30 8.8 8.7 99 1003.3 14.5 WSW 20.6 0.0 1.5
07:31 8.8 8.7 99 1003.3 13.6 WSW 20.6 0.0 1.5
07:32 8.8 8.7 99 1003.2 16.8 WSW 19.7 0.0 1.5
07:33 8.8 8.7 99 1003.4 13.0 S 19.7 0.0 1.5
07:34 8.8 8.7 99 1003.2 15.2 W 19.7 0.0 1.5
07:35 8.8 8.7 99 1003.3 14.5 WSW 19.7 0.0 1.5
07:36 8.8 8.7 99 1003.2 15.9 WSW 16.8 0.0 1.5
07:37 8.9 8.8 99 1003.1 16.8 WSW 16.8 0.0 1.5
07:38 8.9 8.8 99 1003.0 12.1 S 16.8 0.0 1.5
07:39 8.9 8.8 99 1003.1 13.6 WSW 16.8 0.0 1.5
07:40 8.9 8.8 99 1003.1 16.8 WSW 16.8 0.0 1.5
07:41 8.9 8.8 99 1003.1 15.9 S 16.8 0.0 1.5
07:42 8.9 8.8 99 1003.1 14.5 WSW 16.8 0.0 1.5
07:43 8.9 8.8 99 1003.0 15.2 S 16.8 0.0 1.5
07:44 8.9 8.8 99 1002.9 16.8 S 16.8 0.0 1.5
07:45 9.0 8.9 99 1002.9 17.4 S 17.4 0.0 1.5
07:46 9.0 8.9 99 1002.9 12.1 W 17.4 0.0 1.5
07:47 9.0 8.9 99 1003.0 15.2 S 17.4 0.0 1.5
07:48 9.0 8.9 99 1003.0 13.6 WSW 17.4 0.0 1.5
07:49 9.0 8.9 99 1002.9 14.5 WSW 17.4 0.0 1.5
07:50 9.0 8.9 99 1002.9 15.9 S 17.4 0.0 1.5
07:51 9.1 9.0 99 1002.8 22.8 S 22.8 0.0 1.5
07:52 9.1 9.0 99 1002.9 20.6 NNW 22.8 0.0 1.5
07:53 9.1 9.0 99 1003.0 15.9 NNW 22.8 0.0 1.5
07:54 9.1 9.0 99 1002.9 16.8 NNW 22.8 0.0 1.5
07:55 9.1 9.0 99 1002.8 18.3 SW 22.8 0.0 1.5
07:56 9.1 9.0 99 1002.9 16.8 W 22.8 0.0 1.5
07:57 9.2 9.1 99 1002.8 20.6 WSW 22.8 0.0 1.5
07:58 9.2 9.1 99 1002.8 18.3 WSW 22.8 0.0 1.5
07:59 9.2 9.1 99 1002.9 13.0 WSW 22.8 0.0 1.5
08:00 9.2 9.1 99 1002.9 17.4 WSW 22.8 0.0 1.5
08:01 9.2 9.1 99 1002.7 19.7 WSW 22.8 0.0 1.5
08:02 9.2 9.1 99 1003.0 19.7 WSW 20.6 0.0 1.5
08:03 9.2 9.1 99 1002.8 18.3 S 20.6 0.0 1.5
08:04 9.2 9.1 99 1002.9 16.8 S 20.6 0.0 1.5
08:05 9.2 9.1 99 1002.6 20.6 NW 20.6 0.0 1.5
08:07 9.1 9.0 99 1002.6 23.5 S 23.5 0.0 1.5
08:08 9.1 9.0 99 1002.6 15.9 S 23.5 0.0 1.5
08:10 9.1 9.0 99 1002.5 19.0 WNW 23.5 0.0 1.5
08:11 9.1 9.0 99 1002.6 14.5 S 23.5 0.0 1.5
08:12 9.1 9.0 99 1002.7 15.2 S 23.5 0.0 1.5
08:13 9.1 9.0 99 1002.7 19.7 WSW 23.5 0.0 1.5
08:14 9.1 9.0 99 1002.6 18.3 WSW 23.5 0.0 1.5
08:15 9.1 9.0 99 1002.6 19.0 S 23.5 0.0 1.5
08:16 9.1 9.0 99 1002.6 19.7 S 23.5 0.0 1.5
08:17 9.1 9.0 99 1002.7 19.7 S 19.7 0.0 1.5
08:18 9.1 9.0 99 1002.5 21.3 S 21.3 0.0 1.5
08:19 9.1 9.0 99 1002.6 15.2 WSW 21.3 0.0 1.5
08:20 9.1 9.0 99 1002.7 14.5 S 21.3 0.0 1.5
08:21 9.1 9.0 99 1002.7 15.2 WSW 21.3 0.0 1.5
08:22 9.1 9.0 99 1002.8 19.0 SE 21.3 0.0 1.5
08:23 9.1 9.0 99 1002.6 18.3 WSW 21.3 0.0 1.5
08:24 9.1 9.0 99 1002.7 24.4 WSW 24.4 0.0 1.5
08:25 9.0 8.9 99 1002.7 22.1 WSW 24.4 0.0 1.6
08:26 9.0 8.9 99 1002.8 16.8 WNW 24.4 0.8 1.6
08:27 8.9 8.8 99 1002.7 23.5 S 24.4 1.5 1.6
08:28 8.9 8.8 99 1002.6 19.7 WSW 24.4 1.5 1.7
08:29 8.9 8.8 99 1002.6 15.9 WSW 24.4 2.3 1.8
08:30 8.8 8.7 99 1002.7 14.5 S 24.4 3.0 1.8
08:31 8.8 8.7 99 1002.5 14.5 WSW 24.4 2.3 1.8
08:32 8.8 8.7 99 1002.6 18.3 WSW 24.4 2.3 1.8
08:33 8.8 8.7 99 1002.7 19.7 NE 24.4 2.3 1.8
08:34 8.7 8.6 99 1002.7 16.8 WSW 24.4 1.5 1.8
08:35 8.7 8.6 99 1002.7 16.8 WSW 23.5 0.8 1.9
08:36 8.7 8.6 99 1002.6 18.3 WSW 23.5 1.5 1.9
08:37 8.7 8.6 99 1002.7 22.1 WNW 23.5 0.8 1.9
08:39 8.6 8.5 99 1002.7 18.3 S 22.1 1.5 2.0
08:40 8.6 8.5 99 1002.6 20.6 WSW 22.1 1.5 2.0
08:41 8.6 8.5 99 1002.7 15.9 WSW 22.1 0.8 2.0
08:42 8.5 8.4 99 1002.6 24.4 WSW 24.4 1.5 2.0
08:43 8.5 8.4 99 1002.6 19.7 S 24.4 1.5 2.0
08:45 8.5 8.4 99 1002.4 18.3 S 24.4 0.8 2.1
08:46 8.5 8.4 99 1002.6 15.2 W 24.4 1.5 2.1
08:47 8.5 8.4 99 1002.6 18.3 S 24.4 0.8 2.1
08:48 8.5 8.4 99 1002.5 17.4 WSW 24.4 0.8 2.1
08:49 8.4 8.3 99 1002.3 21.3 S 24.4 0.8 2.1
08:50 8.4 8.3 99 1002.4 20.6 WSW 24.4 1.5 2.1
08:51 8.4 8.3 99 1002.3 17.4 WSW 24.4 0.8 2.1
08:52 8.4 8.3 99 1002.4 10.7 S 24.4 0.8 2.1
08:53 8.4 8.3 99 1002.4 9.8 S 21.3 0.8 2.1
08:55 8.4 8.3 99 1002.5 13.0 S 21.3 0.0 2.1
08:56 8.3 8.2 99 1002.2 18.3 S 21.3 0.0 2.1
08:58 8.4 8.3 99 1002.3 20.6 S 21.3 0.0 2.1
08:59 8.3 8.2 99 1002.4 14.5 WSW 21.3 0.0 2.1
09:01 8.4 8.3 99 1002.3 15.2 N 20.6 0.0 2.1
09:02 8.4 8.3 99 1002.3 15.2 N 20.6 0.0 2.1
09:03 8.4 8.3 99 1002.4 16.8 WSW 20.6 0.0 2.1
09:05 8.4 8.3 99 1002.1 16.8 WSW 20.6 0.0 2.1
09:07 8.4 8.3 99 1002.1 15.9 S 20.6 0.0 2.1
09:09 8.5 8.4 99 1002.1 16.8 WSW 19.0 0.0 2.1
09:11 8.5 8.4 99 1002.0 15.9 WSW 19.0 0.0 2.1
09:12 8.5 8.4 99 1001.9 13.6 S 19.0 0.0 2.1
09:15 8.5 8.4 99 1001.9 13.6 WSW 19.0 0.0 2.1
09:16 8.5 8.4 99 1001.8 12.1 NW 16.8 0.0 2.1
09:18 8.6 8.5 99 1001.9 12.1 WSW 16.8 0.0 2.1
09:20 8.6 8.5 99 1001.8 14.5 WSW 16.8 0.0 2.1
09:21 8.6 8.5 99 1001.7 11.4 WSW 16.8 0.0 2.1
09:23 8.6 8.5 99 1001.8 13.6 WSW 16.8 0.0 2.1
09:24 8.7 8.6 99 1001.7 13.6 WSW 16.8 0.0 2.1
09:26 8.7 8.6 99 1001.7 16.8 WSW 16.8 0.0 2.1
09:27 8.7 8.6 99 1001.7 18.3 WSW 18.3 0.0 2.1
09:29 8.7 8.6 99 1001.7 16.8 S 18.3 0.0 2.1
09:30 8.7 8.6 99 1001.6 15.9 S 18.3 0.0 2.1
09:32 8.8 8.7 99 1001.5 13.6 S 18.3 0.8 2.2
09:33 8.8 8.7 99 1001.5 13.0 WSW 18.3 0.8 2.2
09:35 8.8 8.7 99 1001.5 10.7 S 18.3 0.8 2.2
09:37 8.9 8.8 99 1001.5 18.3 S 18.3 0.0 2.2
09:38 8.9 8.8 99 1001.5 18.3 S 18.3 0.0 2.3
09:39 8.9 8.8 99 1001.4 19.0 WSW 19.0 0.8 2.3
09:41 8.9 8.8 99 1001.5 14.5 WSW 19.0 0.8 2.3
09:42 8.9 8.8 99 1001.5 11.4 NW 19.0 1.5 2.4
09:44 8.9 8.8 99 1001.4 15.2 S 19.0 2.3 2.5
09:46 8.9 8.8 99 1001.3 18.3 NNW 19.0 3.0 2.5
09:47 8.9 8.8 99 1001.4 15.2 NW 19.0 3.0 2.6
09:48 8.9 8.8 99 1001.3 15.2 W 19.0 2.3 2.6
09:50 8.9 8.8 99 1001.3 17.4 S 18.3 2.3 2.6
09:52 9.0 8.9 99 1001.3 16.8 S 23.5 1.5 2.7
09:53 9.0 8.9 99 1001.3 16.8 WSW 23.5 1.5 2.8
09:55 9.0 8.9 99 1001.3 17.4 W 23.5 2.3 2.8
09:56 9.0 8.9 99 1001.3 14.5 S 23.5 1.5 2.8
09:58 9.0 8.9 99 1001.2 18.3 WSW 23.5 2.3 2.9
09:59 9.0 8.9 99 1001.1 18.3 WSW 23.5 1.5 2.9
10:01 9.0 8.9 99 1001.1 12.1 WSW 23.5 0.8 3.0
10:02 9.0 8.9 99 1001.1 12.1 WSW 21.3 1.5 3.0
10:04 9.0 8.9 99 1001.1 12.1 WSW 21.3 0.8 3.0
10:05 9.0 8.9 99 1001.1 12.1 WSW 19.0 0.8 3.0
10:07 9.1 9.0 99 1001.2 16.8 SW 19.0 0.8 3.0
10:09 9.1 9.0 99 1001.2 15.9 WSW 20.6 1.5 3.1
10:11 9.1 9.0 99 1001.0 13.6 WSW 20.6 2.3 3.1
10:13 9.1 9.0 99 1001.1 14.5 S 20.6 0.8 3.1
10:15 9.2 9.1 99 1001.0 19.0 WSW 20.6 0.8 3.2
10:17 9.2 9.1 99 1001.1 20.6 S 20.6 0.8 3.2
10:19 9.2 9.1 99 1001.0 19.7 WSW 20.6 0.8 3.3
10:21 9.3 9.2 99 1000.9 15.9 WSW 20.6 0.8 3.3
10:23 9.3 9.2 99 1000.8 19.7 SW 20.6 1.5 3.3
10:25 9.3 9.2 99 1001.0 25.1 WSW 25.1 0.8 3.3
10:27 9.4 9.3 99 1001.0 17.4 WSW 25.1 0.0 3.3
10:29 9.4 9.3 99 1001.1 22.8 WSW 25.1 0.0 3.3
10:31 9.5 9.4 99 1000.8 19.7 WSW 25.1 0.0 3.3
10:33 9.5 9.4 99 1001.1 20.6 S 25.1 0.0 3.3
10:35 9.5 9.4 99 1000.9 21.3 WSW 25.1 0.0 3.3
10:36 9.5 9.4 99 1001.0 21.3 WSW 22.8 0.0 3.3
10:38 9.5 9.4 99 1000.8 18.3 WSW 22.8 0.0 3.3
10:40 9.6 9.5 99 1000.9 19.7 S 22.1 0.0 3.3
10:41 9.6 9.5 99 1000.8 21.3 S 22.1 0.0 3.3
10:43 9.6 9.5 99 1000.8 16.8 S 22.1 0.0 3.3
10:44 9.6 9.5 99 1000.8 12.1 W 22.1 0.0 3.3
10:45 9.6 9.5 99 1000.7 13.0 WSW 22.1 0.8 3.5
10:46 9.6 9.5 99 1000.5 14.5 WSW 22.1 1.5 3.5
10:47 9.6 9.5 99 1000.6 14.5 WSW 22.1 2.3 3.5
10:48 9.6 9.5 99 1000.7 15.2 NW 21.3 2.3 3.5
10:49 9.6 9.5 99 1000.7 15.9 NW 21.3 2.3 3.5
10:50 9.6 9.5 99 1000.7 15.9 WSW 21.3 1.5 3.5
10:51 9.5 9.4 99 1000.7 15.9 WSW 16.8 0.8 3.5
10:52 9.6 9.5 99 1000.7 18.3 WSW 18.3 0.0 3.5
10:53 9.5 9.4 99 1000.7 14.5 WSW 18.3 0.0 3.5
10:54 9.5 9.4 99 1000.6 15.2 WSW 18.3 0.0 3.5
10:55 9.5 9.4 99 1000.5 15.2 WSW 18.3 0.0 3.5
10:56 9.5 9.4 99 1000.4 15.2 S 18.3 0.0 3.5
10:57 9.6 9.5 99 1000.4 15.9 SW 18.3 0.0 3.5
10:58 9.6 9.5 99 1000.5 11.4 WSW 18.3 0.0 3.5
10:59 9.5 9.4 99 1000.6 16.8 S 18.3 0.0 3.5
11:00 9.6 9.5 99 1000.4 17.4 S 18.3 0.0 3.5
11:01 9.6 9.5 99 1000.6 19.7 WSW 19.7 0.0 3.5
11:02 9.6 9.5 99 1000.5 19.7 WSW 19.7 0.0 3.5
11:04 9.6 9.5 99 1000.6 17.4 WSW 19.7 0.0 3.5
11:05 9.6 9.5 99 1000.4 14.5 WSW 19.7 0.0 3.5
11:06 9.6 9.5 99 1000.4 11.4 WSW 19.7 0.0 3.5
11:08 9.7 9.6 99 1000.2 17.4 WSW 19.7 0.0 3.5
11:09 9.7 9.6 99 1000.3 21.3 S 21.3 0.0 3.5
11:11 9.7 9.6 99 1000.2 19.7 WSW 21.3 0.0 3.5
11:12 9.7 9.6 99 1000.4 17.4 WSW 21.3 0.0 3.5
11:13 9.7 9.6 99 1000.4 15.2 WSW 21.3 0.0 3.5
11:14 9.7 9.6 99 1000.3 18.3 S 21.3 0.0 3.5
11:15 9.7 9.6 99 1000.3 17.4 WSW 21.3 0.0 3.5
11:16 9.7 9.6 99 1000.1 16.8 WSW 21.3 0.0 3.5
11:17 9.7 9.6 99 1000.2 15.2 WSW 21.3 0.0 3.5
11:18 9.7 9.6 99 1000.2 21.3 WSW 21.3 0.0 3.5
11:19 9.7 9.6 99 1000.1 15.9 WSW 21.3 0.0 3.5
11:20 9.7 9.6 99 1000.0 20.6 WSW 21.3 0.0 3.5
11:21 9.7 9.6 99 1000.1 15.9 NW 21.3 0.0 3.5
11:22 9.7 9.6 99 1000.2 15.2 WSW 21.3 0.0 3.5
11:23 9.7 9.6 99 1000.1 14.5 WSW 21.3 0.0 3.5
11:24 9.7 9.6 99 1000.0 19.0 WSW 21.3 0.0 3.5
11:25 9.7 9.6 99 1000.0 20.6 WSW 21.3 0.0 3.5
11:26 9.7 9.6 99 1000.0 14.5 WSW 21.3 0.0 3.5
11:27 9.7 9.6 99 1000.0 13.6 NW 21.3 0.0 3.5
11:28 9.7 9.6 99 1000.0 14.5 WSW 20.6 0.0 3.5
11:29 9.7 9.6 99 999.9 12.1 W 20.6 0.0 3.5
11:30 9.7 9.6 99 999.9 13.6 WSW 20.6 0.0 3.5
11:31 9.7 9.6 99 1000.0 19.0 WSW 20.6 0.0 3.5
11:32 9.7 9.6 99 1000.0 19.7 WSW 20.6 0.0 3.5
11:33 9.7 9.6 99 999.8 19.0 WSW 20.6 0.0 3.5
11:34 9.7 9.6 99 999.9 19.0 WSW 20.6 0.0 3.5
11:35 9.7 9.6 99 999.8 22.1 SW 22.1 0.0 3.5
11:36 9.7 9.6 99 999.9 20.6 S 22.1 0.0 3.5
11:37 9.7 9.6 99 999.7 18.3 S 22.1 0.0 3.5
11:38 9.7 9.6 99 999.8 19.7 WSW 22.1 0.0 3.5
11:39 9.7 9.6 99 999.8 19.7 WSW 22.1 0.0 3.5
11:40 9.7 9.6 99 999.8 19.0 S 22.1 0.0 3.5
11:41 9.7 9.6 99 999.8 18.3 WSW 22.1 0.0 3.5
11:43 9.7 9.6 99 999.9 17.4 WSW 22.1 0.0 3.5
11:44 9.7 9.6 99 999.9 19.7 WSW 22.1 0.0 3.5
11:45 9.7 9.6 99 999.8 20.6 WSW 22.1 0.0 3.5
11:46 9.7 9.6 99 999.8 13.6 WSW 20.6 0.0 3.5
11:47 9.7 9.6 99 999.8 11.4 WSW 20.6 0.0 3.5
11:48 9.7 9.6 99 999.8 16.8 S 20.6 0.0 3.5
11:49 9.7 9.6 99 999.7 19.0 WSW 20.6 0.0 3.5
11:50 9.7 9.6 99 999.7 22.8 WSW 22.8 0.0 3.5
11:51 9.7 9.6 99 999.9 13.0 WSW 22.8 0.0 3.5
11:52 9.7 9.6 99 999.8 18.3 WSW 22.8 0.0 3.5
11:53 9.8 9.7 99 999.7 18.3 WSW 22.8 0.0 3.5
11:54 9.8 9.7 99 999.8 15.2 WSW 22.8 0.0 3.5
11:55 9.7 9.6 99 999.6 13.0 WSW 22.8 0.0 3.5
11:56 9.8 9.7 99 999.7 14.5 WSW 22.8 0.0 3.5
11:57 9.8 9.7 99 999.7 15.9 W 22.8 0.0 3.5
11:58 9.8 9.7 99 999.5 14.5 S 22.8 0.0 3.5
11:59 9.8 9.7 99 999.7 15.9 WSW 22.8 0.0 3.5
12:00 9.8 9.7 99 999.5 18.3 NW 22.8 0.0 3.5
12:01 9.8 9.7 99 999.6 18.3 WSW 21.3 0.0 3.5
12:02 9.8 9.7 99 999.5 18.3 WSW 21.3 0.0 3.5
12:03 9.8 9.7 99 999.5 18.3 WSW 21.3 0.0 3.5
12:04 9.8 9.7 99 999.5 18.3 WSW 21.3 0.0 3.5
12:05 9.8 9.7 99 999.4 18.3 WSW 21.3 0.0 3.5
12:07 9.8 9.7 99 999.3 18.3 WSW 21.3 0.0 3.5
12:08 9.8 9.7 99 999.4 19.0 WSW 21.3 0.0 3.5
12:10 9.8 9.7 99 999.3 15.2 SW 21.3 0.0 3.5
12:11 9.8 9.7 99 999.4 14.5 WSW 19.7 0.0 3.5
12:12 9.8 9.7 99 999.2 21.3 WSW 21.3 0.0 3.5
12:13 9.8 9.7 99 999.2 16.8 WSW 21.3 0.0 3.5
12:14 9.8 9.7 99 999.0 18.3 WSW 21.3 0.0 3.5
12:15 9.8 9.7 99 999.1 13.6 WSW 21.3 0.0 3.5
12:16 9.9 9.8 99 999.1 18.3 S 21.3 0.0 3.5
12:17 9.8 9.7 99 999.1 15.2 WSW 21.3 0.0 3.5
12:18 9.8 9.7 99 999.0 19.0 WSW 21.3 0.0 3.5
12:19 9.8 9.7 99 999.0 13.6 S 21.3 0.0 3.5
12:20 9.8 9.7 99 999.0 17.4 S 21.3 0.0 3.5
12:21 9.8 9.7 99 998.9 15.9 WSW 21.3 0.0 3.5
12:22 9.8 9.7 99 998.8 19.7 N 21.3 0.0 3.5
12:24 9.8 9.7 99 998.9 15.9 N 19.7 0.0 3.5
12:25 9.9 9.8 99 999.1 17.4 WSW 19.7 0.0 3.5
12:26 9.8 9.7 99 999.0 11.4 WSW 19.7 0.0 3.6
12:27 9.8 9.7 99 999.0 18.3 N 19.7 1.5 3.7
12:28 9.8 9.7 99 999.0 12.1 NW 19.7 3.0 3.8
12:29 9.8 9.7 99 999.3 15.2 S 19.7 3.8 3.9
12:30 9.8 9.7 99 999.0 23.5 S 23.5 4.5 4.0
12:31 9.8 9.7 99 999.2 28.2 N 28.2 6.0 4.0
12:32 9.7 9.6 99 999.4 23.5 NW 28.2 4.5 4.1
12:33 9.7 9.6 99 999.2 14.5 S 28.2 3.8 4.1
12:34 9.6 9.5 99 999.3 16.8 WSW 28.2 3.0 4.2
12:35 9.6 9.5 99 999.2 15.2 WSW 28.2 3.0 4.2
12:36 9.5 9.4 99 999.2 18.3 WSW 28.2 1.5 4.2
12:37 9.4 9.3 99 999.2 21.3 WSW 28.2 1.5 4.2
12:38 9.4 9.3 99 999.0 21.3 W 28.2 0.8 4.2
12:39 9.3 9.2 99 999.0 18.3 W 28.2 0.8 4.2
12:40 9.2 9.1 99 999.2 16.8 W 28.2 0.0 4.2
12:41 9.2 9.1 99 999.1 14.5 WSW 23.5 0.0 4.2
12:42 9.2 9.1 99 998.9 19.0 WSW 23.5 0.0 4.2
12:43 9.1 9.0 99 999.0 14.5 WSW 21.3 0.0 4.2
12:44 9.1 9.0 99 999.0 13.6 NW 21.3 0.0 4.2
12:45 9.0 8.9 99 999.0 13.6 NW 21.3 0.0 4.2
12:46 9.0 8.9 99 998.9 19.0 WSW 21.3 0.0 4.2
12:47 9.0 8.9 99 998.9 19.7 WSW 21.3 0.0 4.2
12:48 9.0 8.9 99 999.0 19.7 WNW 21.3 0.0 4.2
12:49 9.0 8.9 99 999.1 15.9 W 19.7 0.0 4.2
12:50 9.0 8.9 99 998.9 14.5 NW 19.7 0.0 4.2
12:51 9.0 8.9 99 998.9 13.6 WSW 19.7 0.0 4.2
12:52 9.0 8.9 99 998.9 15.2 WSW 19.7 0.0 4.2
12:53 9.0 8.9 99 998.8 20.6 WSW 20.6 0.0 4.2
12:54 9.0 8.9 99 999.0 17.4 W 20.6 0.0 4.2
12:55 9.0 8.9 99 998.9 14.5 WSW 20.6 0.0 4.2
12:56 9.0 8.9 99 998.9 20.6 WSW 20.6 0.0 4.2
12:57 9.1 9.0 99 998.8 13.0 WSW 20.6 0.0 4.2
12:58 9.1 9.0 99 998.9 18.3 WSW 20.6 0.0 4.2
12:59 9.1 9.0 99 999.0 15.9 W 20.6 0.0 4.2
13:00 9.1 9.0 99 998.9 15.2 NW 20.6 0.0 4.2
13:01 9.1 9.0 99 999.0 15.9 WSW 20.6 0.0 4.2
13:02 9.1 9.0 99 998.8 15.9 WSW 20.6 0.0 4.2
13:03 9.1 9.0 99 999.0 22.1 W 22.1 0.0 4.2
13:04 9.1 9.0 99 999.1 18.3 N 22.1 0.0 4.2
13:05 9.1 9.0 99 999.0 18.3 W 22.1 0.8 4.2
13:07 9.0 8.9 99 999.0 20.6 WSW 22.1 1.5 4.3
13:08 8.9 8.8 99 999.0 14.5 NW 22.1 1.5 4.3
13:10 8.8 8.7 99 998.9 20.6 N 22.1 0.8 4.3
13:11 8.7 8.6 99 999.1 24.4 N 24.4 0.8 4.3
13:12 8.7 8.6 99 998.9 16.8 N 24.4 0.0 4.3
13:13 8.7 8.6 99 998.9 16.8 WNW 24.4 0.0 4.3
13:14 8.7 8.6 99 998.8 19.0 W 24.4 0.0 4.3
13:15 8.7 8.6 99 998.9 16.8 WSW 24.4 0.0 4.3
13:16 8.7 8.6 99 998.7 14.5 WSW 24.4 0.0 4.3
13:17 8.7 8.6 99 998.8 15.2 W 24.4 0.0 4.3
13:19 8.7 8.6 99 998.8 18.3 NW 24.4 0.0 4.3
13:20 8.7 8.6 99 998.8 17.4 WSW 24.4 0.0 4.3
13:21 8.7 8.6 99 998.8 15.9 NW 24.4 0.0 4.3
13:22 8.7 8.6 99 998.9 13.0 NW 19.0 0.0 4.3
13:23 8.7 8.6 99 998.8 16.8 NW 19.0 0.0 4.3
13:24 8.7 8.6 99 998.8 19.0 WSW 19.0 0.0 4.3
13:25 8.7 8.6 99 998.8 19.0 WSW 19.0 0.0 4.3
13:26 8.7 8.6 99 998.8 19.0 WSW 19.0 0.0 4.3
13:27 8.7 8.6 99 998.9 18.3 WSW 19.0 0.8 4.3
13:28 8.6 8.5 99 999.1 22.1 W 22.1 0.8 4.3
13:29 8.6 8.5 99 998.9 25.1 W 25.1 0.8 4.3
13:30 8.6 8.5 99 999.1 16.8 W 25.1 0.8 4.3
13:31 8.6 8.5 99 999.2 20.6 WNW 25.1 0.8 4.3
13:32 8.5 8.4 99 999.2 19.7 N 25.1 0.0 4.3
13:33 8.5 8.4 99 999.1 25.1 N 25.1 0.0 4.4
13:34 8.4 8.3 99 999.2 22.8 N 25.1 0.8 4.4
13:35 8.4 8.3 99 999.0 20.6 W 25.1 0.8 4.4
13:36 8.3 8.2 99 999.1 20.6 NW 25.1 0.8 4.4
13:37 8.3 8.2 99 999.1 14.5 W 25.1 0.8 4.4
13:38 8.2 8.1 99 999.2 13.6 W 25.1 0.8 4.5
13:40 8.1 8.0 99 999.0 19.0 W 25.1 0.8 4.5
13:41 8.1 8.0 99 999.0 15.9 W 25.1 0.8 4.5
13:42 8.1 8.0 99 998.9 17.4 W 25.1 1.5 4.5
13:43 8.1 8.0 99 998.9 19.7 W 25.1 1.5 4.5
13:44 8.1 8.0 99 999.1 13.0 W 22.8 0.8 4.5
13:46 8.0 7.9 99 999.0 12.1 W 20.6 0.8 4.5
13:47 8.0 7.9 99 998.9 16.8 N 19.7 0.8 4.5
13:48 8.0 7.9 99 999.0 14.5 W 19.7 0.0 4.5
13:49 8.0 7.9 99 999.0 15.2 W 19.7 0.0 4.5
13:50 8.0 7.9 99 998.9 14.5 W 19.7 0.0 4.5
13:51 8.0 7.9 99 998.9 18.3 W 19.7 0.0 4.5
13:52 8.0 7.9 99 998.8 13.6 W 19.7 0.0 4.5
13:53 8.1 8.0 99 998.7 13.6 NW 19.7 0.0 4.5
13:54 8.0 7.9 99 998.8 14.5 NW 19.0 0.0 4.5
13:55 8.1 8.0 99 999.1 15.2 W 19.0 0.0 4.5
13:56 8.1 8.0 99 998.7 22.1 NNW 22.1 0.0 4.5
13:57 8.1 8.0 99 998.8 16.8 SW 22.1 0.0 4.5
13:58 8.1 8.0 99 998.9 21.3 SW 22.1 0.0 4.5
13:59 8.2 8.1 99 999.1 13.0 W 22.1 0.0 4.5
14:00 8.2 8.1 99 999.0 14.5 NW 22.1 0.0 4.5
14:01 8.2 8.1 99 999.0 15.9 W 22.1 0.0 4.5
14:02 8.2 8.1 99 999.1 9.8 W 22.1 0.0 4.5
14:03 8.2 8.1 99 999.0 16.8 W 22.1 0.0 4.5
14:04 8.3 8.2 99 999.1 15.2 NW 22.1 0.0 4.5
14:05 8.3 8.2 99 999.0 12.1 W 22.1 0.0 4.5
14:06 8.2 8.1 99 999.0 13.6 W 22.1 0.0 4.5
14:07 8.3 8.2 99 999.1 17.4 N 21.3 0.0 4.5
14:09 8.3 8.2 99 999.2 11.4 W 17.4 0.0 4.5
14:11 8.3 8.2 99 999.2 15.9 W 17.4 0.8 4.6
14:12 8.3 8.2 99 999.2 15.2 W 17.4 0.8 4.6
14:13 8.3 8.2 99 999.2 11.4 W 17.4 0.8 4.6
14:14 8.3 8.2 99 999.3 16.8 W 17.4 0.8 4.6
14:15 8.3 8.2 99 999.2 13.0 W 17.4 0.8 4.6
14:16 8.3 8.2 99 999.2 15.2 W 17.4 0.0 4.6
14:17 8.3 8.2 99 999.1 17.4 NW 17.4 0.0 4.6
14:18 8.3 8.2 99 999.1 15.9 SW 17.4 0.0 4.6
14:19 8.3 8.2 99 999.2 11.4 SW 17.4 0.0 4.6
14:20 8.3 8.2 99 999.1 21.3 NW 21.3 0.0 4.6
14:21 8.3 8.2 99 999.1 15.2 NW 21.3 0.0 4.6
14:22 8.3 8.2 99 999.2 15.2 SW 21.3 0.0 4.6
14:23 8.3 8.2 99 999.1 18.3 W 21.3 0.0 4.6
14:24 8.3 8.2 99 999.1 16.8 W 21.3 0.0 4.6
14:25 8.3 8.2 99 999.0 16.8 N 21.3 0.0 4.6
14:26 8.3 8.2 99 999.0 15.9 W 21.3 0.0 4.6
14:27 8.3 8.2 99 999.0 11.4 W 21.3 0.0 4.6
14:28 8.2 8.1 99 999.0 14.5 SW 21.3 0.0 4.6
14:30 8.2 8.1 99 998.9 11.4 NW 21.3 0.0 4.6
14:32 8.2 8.1 99 998.9 15.2 W 18.3 0.0 4.6
14:33 8.2 8.1 99 998.9 15.9 W 18.3 0.0 4.6
14:34 8.2 8.1 99 999.0 15.9 W 17.4 0.0 4.6
14:35 8.2 8.1 99 999.0 18.3 W 18.3 0.0 4.6
14:36 8.2 8.1 99 999.0 18.3 W 18.3 0.0 4.6
14:37 8.1 8.0 99 999.1 22.8 SW 22.8 0.8 4.7
14:38 8.1 8.0 99 999.1 19.7 SW 22.8 0.8 4.7
14:39 8.1 8.0 99 999.1 19.7 SW 22.8 0.8 4.7
14:40 8.1 8.0 99 999.2 23.5 SW 23.5 0.8 4.7
14:41 8.1 8.0 99 999.2 25.1 W 25.1 0.8 4.7
14:42 8.0 7.9 99 999.2 16.8 W 25.1 0.0 4.7
14:43 8.0 7.9 99 999.1 15.2 SW 25.1 0.0 4.7
14:44 8.0 7.9 99 999.0 13.0 SW 25.1 0.0 4.7
14:45 8.0 7.9 99 998.9 13.0 NW 25.1 0.0 4.7
14:46 8.0 7.9 99 999.0 16.8 SW 25.1 0.0 4.7
14:47 8.0 7.9 99 999.2 12.1 SW 25.1 0.0 4.7
14:48 8.0 7.9 99 999.0 13.0 W 25.1 0.0 4.7
14:49 8.0 7.9 99 999.1 13.0 SW 25.1 0.0 4.7
14:50 8.0 7.9 99 998.9 19.7 SW 25.1 0.0 4.7
14:51 8.0 7.9 99 999.0 13.6 SW 19.7 0.0 4.7
14:52 8.0 7.9 99 999.0 14.5 SW 19.7 0.0 4.7
14:53 8.0 7.9 99 999.1 19.7 W 19.7 0.0 4.7
14:54 8.0 7.9 99 999.0 20.6 W 20.6 0.0 4.7
14:55 8.0 7.9 99 998.9 15.9 W 20.6 0.0 4.7
14:56 8.0 7.9 99 999.0 16.8 SW 20.6 0.0 4.7
14:57 8.0 7.9 99 999.0 15.2 SW 20.6 0.0 4.7
14:58 8.0 7.9 99 998.9 17.4 N 20.6 0.0 4.7
14:59 8.0 7.9 99 998.9 17.4 N 20.6 0.0 4.7
15:00 8.0 7.9 99 998.9 15.9 SW 20.6 0.0 4.7
15:01 7.9 7.8 99 999.0 15.9 SW 20.6 0.0 4.7
15:02 7.9 7.8 99 999.0 15.9 SW 20.6 0.0 4.7
15:03 7.9 7.8 99 998.9 15.2 W 20.6 0.0 4.7
15:04 7.9 7.8 99 999.1 13.6 SW 18.3 0.0 4.7
15:05 7.9 7.8 99 998.8 15.9 W 18.3 0.0 4.7
15:06 7.9 7.8 99 999.0 20.6 SW 20.6 0.0 4.7
15:08 7.9 7.8 99 999.2 14.5 SW 23.5 0.0 4.7
15:09 7.8 7.7 99 999.1 14.5 W 23.5 0.8 4.7
15:11 7.7 7.6 99 999.1 10.7 SW 23.5 0.8 4.7
15:13 7.6 7.5 99 999.2 15.9 SW 23.5 0.8 4.7
15:14 7.5 7.4 99 999.0 13.0 W 23.5 0.0 4.7
15:15 7.5 7.4 99 998.9 17.4 W 23.5 0.0 4.7
15:16 7.4 7.3 99 998.9 15.2 W 23.5 0.0 4.7
15:17 7.4 7.3 99 998.9 15.2 SW 23.5 0.0 4.7
15:18 7.3 7.2 99 998.9 13.0 NW 19.7 0.0 4.7
15:19 7.3 7.2 99 998.8 12.1 W 17.4 0.0 4.7
15:20 7.2 7.1 99 998.8 13.6 SW 17.4 0.0 4.7
15:21 7.2 7.1 99 999.0 13.6 W 17.4 0.0 4.7
15:22 7.1 7.0 99 998.7 13.0 W 17.4 0.0 4.7
15:23 7.1 7.0 99 998.8 12.1 SW 17.4 0.0 4.7
15:24 7.1 7.0 99 998.8 14.5 NW 17.4 0.0 4.7
15:25 7.1 7.0 99 998.9 15.9 SW 17.4 0.0 4.7
15:26 7.1 7.0 99 998.8 13.0 SW 15.9 0.0 4.7
15:27 7.0 6.9 99 998.9 10.7 SW 15.9 0.0 4.7
15:28 7.0 6.9 99 998.9 13.6 SW 15.9 0.0 4.7
15:29 7.0 6.9 99 998.8 13.6 W 15.9 0.0 4.7
15:30 7.0 6.9 99 998.9 12.1 SW 15.9 0.0 4.7
15:31 7.0 6.9 99 998.8 13.0 SW 15.9 0.0 4.7
15:32 7.0 6.9 99 998.9 14.5 SW 15.9 0.0 4.7
15:33 7.0 6.9 99 998.9 16.8 W 16.8 0.0 4.7
15:34 7.0 6.9 99 998.8 15.2 SW 16.8 0.0 4.7
15:35 7.0 6.9 99 998.8 13.0 SW 16.8 0.0 4.7
15:36 7.0 6.9 99 998.8 11.4 SW 16.8 0.0 4.7
15:37 7.0 6.9 99 998.7 12.1 W 16.8 0.0 4.7
15:38 7.0 6.9 99 998.7 15.2 W 16.8 0.0 4.7
15:39 7.0 6.9 99 998.7 13.6 SW 16.8 0.0 4.7
15:40 7.0 6.9 99 998.7 18.3 SW 18.3 0.0 4.7
15:41 7.0 6.9 99 998.7 10.7 W 18.3 0.0 4.7
15:42 7.0 6.9 99 998.6 13.6 SW 18.3 0.0 4.7
15:44 7.0 6.9 99 998.7 17.4 SW 18.3 0.0 4.7
15:45 7.0 6.9 99 998.6 9.8 W 18.3 0.0 4.7
15:46 7.0 6.9 99 998.7 12.1 SW 18.3 0.0 4.7
15:47 7.0 6.9 99 998.7 15.9 W 18.3 0.0 4.7
15:48 7.0 6.9 99 998.5 16.8 SW 18.3 0.0 4.7
15:49 7.1 7.0 99 998.6 12.1 SW 18.3 0.0 4.7
15:50 7.1 7.0 99 998.6 13.0 SW 18.3 0.0 4.7
15:51 7.1 7.0 99 998.6 13.0 SW 17.4 0.0 4.7
15:53 7.1 7.0 99 998.8 12.1 SW 17.4 0.0 4.7
15:54 7.1 7.0 99 998.8 15.9 W 17.4 0.0 4.7
15:55 7.1 7.0 99 998.8 13.6 SW 16.8 0.0 4.7
15:56 7.1 7.0 99 998.8 17.4 SW 17.4 0.0 4.7
15:57 7.1 7.0 99 998.8 19.0 SW 19.0 0.0 4.7
15:58 7.1 7.0 99 998.8 14.5 SW 19.0 0.0 4.7
15:59 7.1 7.0 99 998.6 20.6 NW 20.6 0.0 4.7
16:00 7.1 7.0 99 998.8 15.2 S 20.6 0.0 4.7
16:01 7.1 7.0 99 998.8 18.3 SW 20.6 0.0 4.7
16:02 7.1 7.0 99 998.8 13.6 W 20.6 0.0 4.7
16:03 7.1 7.0 99 999.0 14.5 SW 20.6 0.0 4.7
16:04 7.1 7.0 99 998.9 18.3 W 20.6 0.0 4.7
16:05 7.1 7.0 99 998.8 15.9 SW 20.6 0.0 4.7
16:06 7.1 7.0 99 998.8 17.4 W 20.6 0.0 4.7
16:07 7.1 7.0 99 998.7 11.4 W 20.6 0.0 4.7
16:09 7.1 7.0 99 998.9 15.2 SW 18.3 0.0 4.7
16:11 7.1 7.0 99 998.7 13.0 SW 18.3 0.0 4.7
16:12 7.1 7.0 99 998.7 12.1 SW 18.3 0.0 4.7
16:13 7.1 7.0 99 998.9 15.2 S 18.3 0.0 4.7
16:14 7.1 7.0 99 998.8 16.8 SW 17.4 0.0 4.7
16:15 7.1 7.0 99 998.7 16.8 W 17.4 0.0 4.7
16:16 7.0 6.9 99 998.6 10.7 SW 17.4 0.0 4.7
16:18 7.1 7.0 99 998.5 15.2 NW 17.4 0.0 4.7
16:19 7.1 7.0 99 998.7 13.0 SW 16.8 0.0 4.7
16:20 7.0 6.9 99 998.8 19.7 WNW 19.7 0.0 4.7
16:21 7.0 6.9 99 998.8 22.8 SW 22.8 0.0 4.7
16:22 7.0 6.9 99 998.8 19.7 W 22.8 0.0 4.7
16:23 7.0 6.9 99 998.8 19.0 W 22.8 0.0 4.7
16:25 7.1 7.0 99 998.9 15.9 W 22.8 0.0 4.7
16:26 7.1 7.0 99 998.9 20.6 SW 22.8 0.0 4.7
16:27 7.0 6.9 99 998.7 17.4 S 22.8 0.0 4.7
16:28 7.0 6.9 99 998.8 18.3 SW 22.8 0.0 4.7
16:29 7.0 6.9 99 998.6 14.5 N 22.8 0.0 4.7
16:30 7.1 7.0 99 998.6 18.3 WNW 23.5 0.0 4.7
16:31 7.0 6.9 99 998.7 13.0 SW 23.5 0.0 4.7
16:32 7.1 7.0 99 998.6 15.9 SW 23.5 0.0 4.7
16:33 7.1 7.0 99 998.6 15.2 SW 23.5 0.0 4.7
16:34 7.0 6.9 99 998.7 18.3 SW 23.5 0.0 4.7
16:35 7.0 6.9 99 998.7 14.5 NW 23.5 0.0 4.7
16:36 7.0 6.9 99 998.7 18.3 SW 23.5 0.0 4.7
16:37 7.0 6.9 99 998.7 19.0 SW 23.5 0.0 4.7
16:38 7.0 6.9 99 998.7 15.2 SW 23.5 0.0 4.7
16:39 7.1 7.0 99 998.7 19.7 N 23.5 0.0 4.7
16:40 7.0 6.9 99 998.5 15.9 SW 19.7 0.0 4.7
16:41 7.0 6.9 99 998.8 16.8 SW 19.7 0.0 4.7
16:42 7.1 7.0 99 998.7 19.7 W 19.7 0.0 4.7
16:43 7.1 7.0 99 998.6 14.5 W 19.7 0.0 4.7
16:44 7.0 6.9 99 998.6 13.0 SW 19.7 0.0 4.7
16:45 7.0 6.9 99 998.6 17.4 SW 19.7 0.0 4.7
16:46 7.0 6.9 99 998.4 18.3 W 19.7 0.0 4.7
16:47 7.0 6.9 99 998.5 16.8 S 20.6 0.0 4.7
16:48 7.0 6.9 99 998.2 21.3 W 21.3 0.0 4.7
16:49 7.0 6.9 99 998.3 18.3 NW 21.3 0.0 4.7
16:50 7.0 6.9 99 998.4 19.7 N 21.3 0.0 4.7
16:51 7.0 6.9 99 998.2 19.0 WNW 21.3 0.0 4.7
16:52 7.0 6.9 99 998.3 14.5 N 21.3 0.0 4.7
16:53 7.0 6.9 99 998.4 21.3 SW 21.3 0.0 4.7
16:54 7.0 6.9 99 998.2 17.4 SW 21.3 0.0 4.7
16:55 7.0 6.9 99 998.3 19.7 W 21.3 0.0 4.7
16:56 7.0 6.9 99 998.3 22.1 SW 22.1 0.0 4.7
16:58 7.1 7.0 99 998.2 14.5 SW 22.1 0.0 4.7
16:59 7.1 7.0 99 998.3 22.8 W 22.8 0.0 4.7
17:00 7.1 7.0 99 998.1 17.4 SW 22.8 0.0 4.7
17:01 7.1 7.0 99 998.0 18.3 SW 22.8 0.0 4.7
17:02 7.1 7.0 99 998.1 13.0 W 22.8 0.0 4.7
17:03 7.1 7.0 99 997.9 17.4 SW 22.8 0.0 4.7
17:04 7.1 7.0 99 997.8 15.9 SW 22.8 0.0 4.7
17:05 7.2 7.1 99 997.9 15.2 SW 22.8 0.0 4.7
17:06 7.2 7.1 99 998.0 15.2 S 22.8 0.0 4.7
17:08 7.2 7.1 99 997.8 13.6 SW 22.8 0.0 4.7
17:09 7.2 7.1 99 997.8 18.3 SW 21.3 0.0 4.7
17:11 7.2 7.1 99 997.9 14.5 S 21.3 0.0 4.7
17:12 7.2 7.1 99 997.9 11.4 SW 21.3 0.0 4.7
17:14 7.2 7.1 99 997.8 14.5 SW 21.3 0.0 4.7
17:15 7.2 7.1 99 997.7 25.9 SW 25.9 0.0 4.7
17:16 7.3 7.2 99 998.0 21.3 SW 25.9 0.0 4.7
17:19 7.3 7.2 99 998.1 21.3 W 25.9 0.0 4.7
17:20 7.3 7.2 99 998.3 19.0 SW 25.9 0.0 4.7
17:21 7.2 7.1 99 998.2 20.6 W 25.9 0.0 4.7
17:22 7.2 7.1 99 998.2 19.0 W 25.9 1.5 4.9
17:23 7.0 6.9 99 998.5 23.5 WNW 25.9 2.3 4.9
17:24 6.9 6.8 99 998.4 20.6 W 25.9 4.5 5.2
17:25 6.8 6.7 99 998.1 30.4 NW 30.4 5.3 5.2
17:26 6.8 6.7 99 998.4 30.4 WNW 30.4 6.0 5.3
17:27 6.7 6.6 99 998.1 28.2 SW 30.4 6.0 5.4
17:28 6.6 6.5 99 998.1 31.1 SW 31.1 5.3 5.4
17:30 6.6 6.5 99 998.3 24.4 SW 31.1 3.8 5.5
17:31 6.5 6.4 99 998.3 22.8 SW 31.1 3.0 5.5
17:32 6.5 6.4 99 998.3 23.5 SW 31.1 1.5 5.5
17:33 6.4 6.3 99 998.1 21.3 SW 32.7 2.3 5.6
17:34 6.4 6.3 99 998.2 28.9 SW 32.7 2.3 5.6
17:35 6.4 6.3 99 997.9 28.2 SW 32.7 1.5 5.6
17:36 6.4 6.3 99 998.2 21.3 NW 32.7 2.3 5.7
17:38 6.4 6.3 99 998.2 21.3 SW 32.7 2.3 5.7
17:39 6.4 6.3 99 998.2 22.8 NW 32.7 2.3 5.8
17:40 6.4 6.3 99 998.2 32.7 NW 32.7 3.0 5.9
17:41 6.4 6.3 99 998.1 30.4 NW 32.7 2.3 5.9
17:42 6.4 6.3 99 997.9 27.3 N 32.7 2.3 5.9
17:44 6.3 6.2 99 997.7 25.9 N 32.7 1.5 5.9
17:45 6.3 6.2 99 998.2 26.6 N 32.7 0.8 5.9
17:46 6.3 6.2 99 998.1 24.4 W 32.7 0.8 5.9
17:47 6.3 6.2 99 998.4 24.4 W 32.7 0.8 5.9
17:48 6.3 6.2 99 998.1 28.9 N 33.6 0.8 6.0
17:49 6.3 6.2 99 998.0 25.9 SW 33.6 0.8 6.0
17:51 6.3 6.2 99 998.0 19.7 N 33.6 1.5 6.0
17:52 6.3 6.2 99 997.9 38.7 NW 38.7 1.5 6.0
17:53 6.3 6.2 99 998.1 28.2 NW 38.7 0.8 6.0
17:54 6.3 6.2 99 997.9 24.4 N 38.7 0.8 6.0
17:55 6.3 6.2 99 997.8 21.3 N 38.7 0.8 6.1
17:56 6.2 6.1 99 997.8 20.6 NNW 38.7 0.8 6.1
17:57 6.2 6.1 99 997.7 18.3 S 38.7 0.8 6.1
17:58 6.2 6.1 99 997.7 24.4 S 38.7 0.8 6.1
17:59 6.2 6.1 99 997.7 27.3 W 38.7 0.8 6.1
18:00 6.2 6.1 99 997.7 28.2 NW 38.7 0.0 6.1
18:02 6.2 6.1 99 997.7 19.0 SW 38.7 0.0 6.1
18:03 6.1 6.0 99 997.7 15.2 W 29.8 0.0 6.1
18:04 6.2 6.1 99 997.7 25.1 SW 29.8 0.0 6.1
18:05 6.1 6.0 99 997.7 28.2 NW 28.2 0.0 6.1
18:06 6.1 6.0 99 997.7 22.1 SW 28.2 0.0 6.1
18:08 6.1 6.0 99 997.3 22.1 W 28.2 0.0 6.1
18:09 6.2 6.1 99 997.6 22.8 S 28.2 0.0 6.1
18:11 6.2 6.1 99 997.5 22.8 SW 28.2 0.0 6.1
18:13 6.2 6.1 99 997.5 19.7 WNW 28.2 0.0 6.1
18:14 6.2 6.1 99 997.6 19.0 W 28.2 0.0 6.1
18:15 6.2 6.1 99 997.4 17.4 W 23.5 0.0 6.1
18:16 6.3 6.2 99 997.5 18.3 NW 24.4 0.0 6.1
18:17 6.3 6.2 99 997.7 19.0 W 24.4 0.0 6.2
18:18 6.3 6.2 99 997.7 25.1 W 25.1 3.0 6.4
18:20 6.5 6.4 99 997.7 22.1 N 25.1 6.8 6.7
18:21 6.3 6.2 99 997.8 21.3 N 25.1 7.6 6.7
18:22 6.3 6.2 99 997.8 20.6 NW 25.1 7.6 6.7
18:24 6.3 6.2 99 997.9 15.9 N 25.1 4.5 6.7
18:25 6.3 6.2 99 997.9 23.5 N 25.1 0.8 6.7
18:26 6.3 6.2 99 997.8 19.7 W 25.1 0.8 6.8
18:27 6.3 6.2 99 998.0 24.4 W 25.1 0.8 6.8
18:28 6.3 6.2 99 997.9 15.2 NW 25.1 0.8 6.8
18:30 6.3 6.2 99 997.8 23.5 N 25.1 0.8 6.8
18:31 6.3 6.2 99 997.8 26.6 N 26.6 0.0 6.8
18:32 6.3 6.2 99 997.7 25.1 N 26.6 0.0 6.8
18:33 6.3 6.2 99 997.9 19.7 W 26.6 0.0 6.8
18:34 6.3 6.2 99 998.0 19.7 NW 26.6 0.0 6.8
18:35 6.3 6.2 99 997.9 18.3 NW 26.6 0.0 6.8
18:36 6.3 6.2 99 998.1 34.9 S 34.9 0.8 6.9
18:37 6.3 6.2 99 998.5 34.2 SW 34.9 0.8 7.0
18:39 6.4 6.3 99 998.3 32.0 SW 34.9 3.0 7.1
18:40 6.1 6.0 99 998.0 33.6 NW 34.9 3.8 7.1
18:41 6.0 5.9 99 998.2 18.3 W 34.9 3.0 7.1
18:42 6.0 5.9 99 998.2 21.3 W 34.9 3.0 7.1
18:43 5.9 5.8 99 998.2 20.6 SW 34.9 1.5 7.1
18:45 5.8 5.7 99 998.2 15.2 W 34.9 0.0 7.1
18:46 5.7 5.6 99 998.2 24.4 W 34.9 0.0 7.1
18:47 5.7 5.6 99 998.3 21.3 N 34.2 0.0 7.1
18:48 5.7 5.6 99 998.2 22.8 SW 33.6 0.0 7.1
18:50 5.7 5.6 99 998.2 24.4 SW 33.6 0.0 7.1
18:51 5.7 5.6 99 998.1 17.4 SW 24.4 0.0 7.1
18:52 5.7 5.6 99 998.2 18.3 W 24.4 0.0 7.1
18:53 5.7 5.6 99 998.3 27.3 NNW 27.3 0.0 7.1
18:54 5.7 5.6 99 998.2 22.1 SW 27.3 0.0 7.1
18:55 5.7 5.6 99 998.2 19.0 W 27.3 0.0 7.1
18:57 5.8 5.7 99 998.2 18.3 SW 27.3 0.0 7.1
18:58 5.8 5.7 99 998.3 26.6 SW 27.3 0.0 7.1
18:59 5.8 5.7 99 998.2 25.1 NW 27.3 0.0 7.1
19:00 5.9 5.8 99 998.3 27.3 W 27.3 0.0 7.1
19:01 5.9 5.8 99 998.2 20.6 N 27.3 0.0 7.1
19:03 6.0 5.9 99 998.2 25.1 NW 27.3 0.0 7.1
19:04 6.0 5.9 99 998.1 20.6 SW 27.3 0.0 7.1
19:05 6.0 5.9 99 998.5 22.8 NW 27.3 0.0 7.1
19:06 6.0 5.9 99 998.2 32.0 W 32.0 0.0 7.1
19:07 6.0 5.9 99 998.1 31.1 W 32.0 0.0 7.1
19:09 6.1 6.0 99 998.3 37.4 NW 37.4 0.0 7.1
19:10 6.1 6.0 99 998.3 25.1 NW 37.4 0.0 7.1
19:13 6.1 6.0 99 998.2 26.6 S 37.4 0.0 7.1
19:15 6.1 6.0 99 998.6 22.1 SW 37.4 0.0 7.1
19:16 6.1 6.0 99 998.5 32.0 W 37.4 0.0 7.1
19:18 6.1 6.0 99 998.4 26.6 WNW 37.4 0.0 7.1
19:20 6.1 6.0 99 998.6 32.0 SW 32.7 0.0 7.1
19:21 6.1 6.0 99 998.5 36.5 SW 36.5 0.0 7.1
19:22 6.1 6.0 99 998.2 25.1 N 36.5 0.0 7.1
19:23 6.1 5.8 98 998.7 29.8 SW 36.5 0.0 7.1
19:24 6.1 5.8 98 998.5 31.1 SW 36.5 0.0 7.1
19:26 6.1 5.8 98 998.3 28.2 NW 36.5 0.0 7.1
19:27 6.1 5.7 97 998.7 28.9 W 36.5 0.0 7.1
19:29 6.0 5.6 97 998.6 30.4 NW 36.5 0.0 7.1
19:31 6.0 5.4 96 998.5 25.9 W 32.0 0.0 7.1
19:32 6.0 5.4 96 998.7 25.9 NW 32.0 0.0 7.1
19:33 6.0 5.4 96 998.5 28.2 W 32.0 0.0 7.1
19:34 6.0 5.4 96 998.6 18.3 W 32.0 0.0 7.1
19:36 5.9 5.2 95 998.7 22.8 NW 32.0 0.0 7.1
19:37 5.9 5.2 95 998.7 18.3 SW 32.0 0.0 7.1
19:38 5.9 5.2 95 998.5 17.4 SW 32.0 0.0 7.1
19:40 5.8 5.1 95 998.7 17.4 W 28.2 0.0 7.1
19:42 5.8 5.1 95 998.8 20.6 SW 28.2 0.0 7.1
19:43 5.7 4.8 94 998.7 15.9 W 28.2 0.0 7.1
19:44 5.7 5.0 95 998.5 24.4 SW 24.4 0.0 7.1
19:45 5.7 4.8 94 998.5 28.9 W 28.9 0.0 7.1
19:46 5.7 4.8 94 998.7 32.0 NW 32.0 0.0 7.1
19:48 5.7 4.8 94 998.7 17.4 NW 32.0 0.0 7.1
19:49 5.7 4.8 94 998.8 22.8 SW 32.0 0.0 7.1
19:50 5.7 4.8 94 998.8 28.2 NW 32.0 0.0 7.1
19:51 5.8 4.8 93 998.6 27.3 SW 32.0 0.0 7.1
19:52 5.8 4.8 93 998.9 24.4 W 32.0 0.0 7.1
19:54 5.8 4.8 93 998.7 32.0 SW 32.0 0.0 7.1
19:55 5.8 4.8 93 998.7 22.8 NW 32.0 0.0 7.1
19:57 5.8 4.8 93 998.7 22.1 S 32.0 0.0 7.1
19:58 5.8 4.8 93 998.6 25.9 SW 32.0 0.0 7.1
19:59 5.8 4.8 93 998.9 22.1 SW 32.0 0.0 7.1
20:00 5.8 4.6 92 998.7 21.3 NW 32.0 0.0 7.1
20:01 5.8 4.6 92 998.8 9.8 W 32.0 0.0 7.1
20:02 5.8 4.6 92 998.8 9.8 W 32.0 0.0 7.1
20:04 5.8 4.6 92 998.9 18.3 NW 25.9 0.0 7.1
20:05 5.8 4.6 92 998.5 32.0 SW 32.0 0.0 7.1
20:06 5.9 4.7 92 999.0 20.6 W 32.0 0.0 7.1
20:07 5.9 4.7 92 999.2 22.1 W 32.0 0.0 7.1
20:09 5.9 4.7 92 999.3 15.9 N 32.0 1.5 7.2
20:10 5.9 4.7 92 999.3 15.9 WNW 32.0 1.5 7.2
20:12 5.9 4.7 92 999.3 23.5 WNW 32.0 2.3 7.3
20:14 5.8 4.6 92 999.5 17.4 NW 32.0 0.8 7.3
20:15 5.7 4.7 93 999.5 22.8 W 25.1 0.8 7.3
20:17 5.6 4.6 93 999.6 21.3 SW 25.1 0.0 7.3
20:19 5.6 4.6 93 999.6 17.4 SW 25.1 0.0 7.3
20:20 5.6 4.6 93 999.4 19.0 SW 25.1 0.0 7.3
20:22 5.5 4.5 93 999.7 10.7 W 25.1 0.0 7.3
20:23 5.5 4.6 94 999.5 21.3 W 25.1 0.0 7.3
20:25 5.5 4.6 94 999.6 21.3 NW 25.1 0.0 7.3
20:26 5.5 4.6 94 999.7 21.3 W 22.8 0.0 7.3
20:27 5.5 4.6 94 999.7 19.0 W 22.8 0.0 7.3
20:28 5.5 4.6 94 999.6 15.9 SW 22.8 0.0 7.3
20:29 5.5 4.6 94 999.7 25.1 SW 25.1 0.0 7.3
20:31 5.5 4.6 94 999.5 20.6 W 25.1 0.0 7.3
20:32 5.5 4.6 94 999.6 19.0 W 25.1 0.0 7.3
20:33 5.6 4.7 94 999.8 14.5 W 25.1 0.0 7.3
20:34 5.6 4.7 94 999.7 18.3 W 25.1 0.0 7.3
20:36 5.6 4.7 94 999.7 24.4 SW 25.1 0.0 7.3
20:37 5.6 4.7 94 999.8 26.6 NW 26.6 0.0 7.3
20:38 5.6 4.7 94 999.7 26.6 NW 26.6 0.0 7.3
20:39 5.7 4.8 94 999.8 26.6 NW 26.6 0.0 7.3
20:40 5.7 4.8 94 999.8 17.4 W 26.6 0.0 7.3
20:42 5.7 4.8 94 999.8 19.0 NW 26.6 0.0 7.3
20:43 5.8 4.9 94 999.9 20.6 W 26.6 0.0 7.3
20:44 5.8 4.9 94 999.7 22.1 W 26.6 0.0 7.3
20:45 5.8 4.9 94 999.9 19.7 W 26.6 0.0 7.3
20:46 5.8 4.9 94 999.7 24.4 S 26.6 0.0 7.3
20:48 5.8 4.9 94 999.9 15.9 WNW 26.6 0.0 7.3
20:49 5.8 4.9 94 999.9 23.5 W 26.6 0.0 7.3
20:50 5.8 4.9 94 999.8 25.1 SW 25.1 0.0 7.3
20:51 5.8 4.8 93 1000.0 20.6 SE 25.1 0.0 7.3
20:53 5.8 4.8 93 1000.1 21.3 W 25.1 0.0 7.3
20:54 5.8 4.8 93 1000.1 26.6 N 26.6 0.0 7.3
20:55 5.8 4.8 93 1000.0 23.5 SW 26.6 0.0 7.3
20:57 5.8 4.8 93 1000.2 18.3 W 26.6 0.0 7.3
20:58 5.8 4.6 92 1000.4 28.2 SW 28.2 0.0 7.3
20:59 5.8 4.6 92 1000.3 15.9 W 28.2 0.0 7.3
21:01 5.8 4.6 92 1000.3 22.8 SW 28.2 0.0 7.3
21:02 5.8 4.6 92 1000.2 22.8 SW 28.2 0.0 7.3
21:04 5.8 4.6 92 1000.2 22.8 SW 28.2 0.0 7.3
21:05 5.8 4.6 92 1000.4 23.5 SW 28.2 0.0 7.3
21:06 5.8 4.6 92 1000.5 25.1 SW 28.2 0.0 7.3
21:07 5.8 4.6 92 1000.6 25.1 W 31.1 0.0 7.3
21:08 5.8 4.6 92 1000.3 25.1 SW 31.1 0.0 7.3
21:10 5.8 4.6 92 1000.6 15.9 SW 31.1 0.0 7.3
21:13 5.8 4.4 91 1000.5 24.4 SW 31.1 0.0 7.3
21:16 5.7 4.3 91 1000.6 19.7 W 31.1 0.0 7.3
21:19 5.7 4.3 91 1000.6 27.3 W 28.2 0.0 7.3
21:21 5.7 4.3 91 1000.6 18.3 W 28.2 0.0 7.3
21:22 5.7 4.3 91 1000.6 20.6 SW 28.2 0.0 7.3
21:24 5.7 4.3 91 1000.6 13.6 NW 28.2 0.0 7.3
21:26 5.7 4.3 91 1000.8 21.3 W 27.3 0.0 7.3
21:27 5.7 4.3 91 1000.6 22.1 NW 27.3 0.0 7.3
21:29 5.7 4.3 91 1000.7 20.6 NW 27.3 0.0 7.3
21:30 5.7 4.2 90 1000.7 19.0 SW 22.1 0.0 7.3
21:31 5.7 4.2 90 1000.8 19.0 SW 22.1 0.0 7.3
21:32 5.7 4.2 90 1000.7 16.8 NW 22.1 0.0 7.3
21:34 5.7 4.2 90 1000.5 21.3 SW 22.1 0.0 7.3
21:35 5.8 4.3 90 1000.5 20.6 SW 22.1 0.0 7.3
21:36 5.8 4.3 90 1000.4 22.1 W 22.1 0.0 7.3
21:37 5.8 4.3 90 1000.6 22.8 W 22.8 0.0 7.3
21:38 5.8 4.3 90 1000.7 14.5 W 22.8 0.0 7.3
21:39 5.8 4.3 90 1000.7 21.3 SW 22.8 0.0 7.3
21:40 5.8 4.3 90 1000.7 21.3 W 22.8 0.0 7.3
21:41 5.8 4.3 90 1000.7 12.1 W 22.8 0.0 7.3
21:42 5.8 4.3 90 1000.7 17.4 W 22.8 0.0 7.3
21:44 5.9 4.4 90 1000.8 11.4 NW 22.8 0.0 7.3
21:45 5.9 4.4 90 1000.7 16.8 W 22.8 0.0 7.3
21:46 5.9 4.4 90 1000.8 21.3 W 22.8 0.0 7.3
21:47 5.9 4.4 90 1000.7 24.4 W 24.4 0.0 7.3
21:48 5.9 4.2 89 1000.8 19.0 SW 24.4 0.0 7.3
21:49 5.9 4.2 89 1000.7 20.6 W 24.4 0.0 7.3
21:50 5.9 4.2 89 1000.7 23.5 SW 24.4 0.0 7.3
21:52 5.9 4.2 89 1000.6 21.3 SW 24.4 0.0 7.3
21:53 5.9 4.2 89 1000.7 23.5 SW 24.4 0.0 7.3
21:54 5.8 4.1 89 1000.9 15.9 SW 24.4 0.0 7.3
21:55 5.8 4.1 89 1000.9 18.3 W 24.4 0.0 7.3
21:56 5.8 4.1 89 1001.0 15.9 SW 24.4 0.0 7.3
21:57 5.8 4.1 89 1000.9 15.2 SW 24.4 0.0 7.3
21:58 5.8 4.1 89 1000.9 13.6 W 23.5 0.0 7.3
21:59 5.8 4.1 89 1000.7 16.8 SW 23.5 0.0 7.3
22:01 5.8 4.1 89 1000.9 13.6 SW 23.5 0.0 7.3
22:02 5.8 4.1 89 1001.0 13.6 SW 23.5 0.0 7.3
22:03 5.8 4.1 89 1000.9 13.6 SW 23.5 0.0 7.3
22:04 5.8 4.1 89 1000.9 13.6 SW 19.0 0.0 7.3
22:05 5.8 4.1 89 1001.1 13.6 SW 19.0 0.0 7.3
22:07 5.8 4.1 89 1000.9 15.2 SE 19.0 0.0 7.3
22:08 5.8 4.3 90 1000.9 21.3 SW 21.3 0.0 7.3
22:10 5.8 4.3 90 1001.1 14.5 NW 21.3 0.0 7.3
22:11 5.9 4.4 90 1001.2 17.4 NNW 21.3 0.0 7.3
22:13 5.9 4.4 90 1001.1 16.8 SW 21.3 0.0 7.3
22:14 5.9 4.4 90 1000.9 19.0 WSW 21.3 0.0 7.3
22:16 5.9 4.4 90 1001.1 19.0 SW 21.3 0.0 7.3
22:17 6.0 4.5 90 1001.1 17.4 N 21.3 0.0 7.3
22:19 6.0 4.5 90 1001.3 13.6 SW 20.6 0.0 7.3
22:20 6.0 4.5 90 1001.2 16.8 NW 22.1 0.0 7.3
22:22 6.0 4.5 90 1001.3 20.6 W 22.1 0.0 7.3
22:23 6.0 4.5 90 1001.2 18.3 SW 22.1 0.0 7.3
22:24 6.0 4.5 90 1001.3 19.0 W 22.1 0.0 7.3
22:25 6.0 4.5 90 1001.4 19.0 W 22.1 0.0 7.3
22:27 6.0 4.5 90 1001.2 27.3 SW 27.3 0.0 7.3
22:28 6.1 4.6 90 1001.5 20.6 SW 27.3 0.0 7.3
22:29 6.1 4.6 90 1001.5 18.3 SW 27.3 0.0 7.3
22:30 6.1 4.4 89 1001.5 17.4 W 27.3 0.0 7.3
22:31 6.1 4.4 89 1001.3 18.3 SW 27.3 0.0 7.3
22:32 6.1 4.4 89 1001.4 22.8 W 27.3 0.0 7.3
22:34 6.1 4.4 89 1001.1 14.5 W 27.3 0.0 7.3
22:35 6.1 4.4 89 1001.1 19.0 W 27.3 0.0 7.3
22:36 6.1 4.4 89 1001.3 20.6 W 27.3 0.0 7.3
22:37 6.1 4.4 89 1001.1 22.1 SW 27.3 0.0 7.3
22:38 6.1 4.4 89 1001.2 18.3 SW 22.8 0.0 7.3
22:39 6.1 4.4 89 1001.2 18.3 W 22.8 0.0 7.3
22:40 6.1 4.4 89 1001.2 16.8 SW 22.8 0.0 7.3
22:41 6.1 4.4 89 1001.1 15.2 WNW 22.8 0.0 7.3
22:42 6.1 4.4 89 1001.3 15.9 SW 22.8 0.0 7.3
22:44 6.1 4.4 89 1001.3 19.0 SW 22.1 0.0 7.3
22:45 6.2 4.5 89 1001.3 17.4 SW 22.1 0.0 7.3
22:46 6.2 4.5 89 1001.1 22.1 SW 22.1 0.0 7.3
22:47 6.2 4.4 88 1001.1 18.3 W 22.1 0.0 7.3
22:48 6.2 4.4 88 1001.2 22.8 S 22.8 0.0 7.3
22:49 6.2 4.4 88 1001.1 16.8 W 22.8 0.0 7.3
22:50 6.2 4.4 88 1001.0 22.1 SW 22.8 0.0 7.3
22:51 6.2 4.4 88 1001.2 20.6 SW 22.8 0.0 7.3
22:52 6.2 4.4 88 1001.1 25.9 NNW 25.9 0.0 7.3
22:53 6.2 4.2 87 1001.3 16.8 SW 25.9 0.0 7.3
22:55 6.2 4.2 87 1001.1 14.5 SW 25.9 0.0 7.3
22:56 6.2 4.2 87 1001.2 14.5 SW 25.9 0.0 7.3
22:57 6.2 4.2 87 1001.2 18.3 W 25.9 0.0 7.3
22:58 6.2 4.2 87 1001.2 16.8 SW 25.9 0.0 7.3
22:59 6.2 4.2 87 1001.2 15.9 NNW 25.9 0.0 7.3
23:00 6.1 4.1 87 1001.3 22.1 SW 25.9 0.0 7.3
23:01 6.1 4.1 87 1001.3 17.4 NW 25.9 0.0 7.3
23:02 6.1 4.1 87 1001.3 17.4 NW 25.9 0.0 7.3
23:03 6.2 4.2 87 1001.0 19.7 SW 22.1 0.0 7.3
23:05 6.2 4.2 87 1001.2 19.0 SW 22.1 0.0 7.3
23:06 6.2 4.2 87 1001.3 13.6 W 22.1 0.0 7.3
23:07 6.2 4.2 87 1001.2 19.7 SW 22.1 0.0 7.3
23:08 6.2 4.2 87 1001.3 13.0 NW 22.1 0.0 7.3
23:10 6.2 4.2 87 1001.3 22.8 SW 22.8 0.0 7.3
23:12 6.2 4.2 87 1001.5 19.0 SW 23.5 0.0 7.3
23:13 6.2 4.2 87 1001.2 25.9 W 25.9 0.0 7.3
23:15 6.2 4.2 87 1001.4 22.8 SW 25.9 0.0 7.3
23:16 6.2 4.2 87 1001.4 11.4 SW 25.9 0.0 7.3
23:18 6.2 4.2 87 1001.4 19.0 SW 25.9 0.0 7.3
23:20 6.2 4.4 88 1001.4 16.8 SW 25.9 0.0 7.3
23:21 6.2 4.4 88 1001.3 15.9 SW 25.9 0.0 7.3
23:22 6.2 4.4 88 1001.5 18.3 S 25.9 0.0 7.3
23:23 6.2 4.4 88 1001.5 15.9 SW 22.8 0.0 7.3
23:24 6.2 4.4 88 1001.4 14.5 W 22.8 0.0 7.3
23:25 6.2 4.4 88 1001.5 14.5 W 19.0 0.0 7.3
23:26 6.2 4.4 88 1001.4 15.2 NW 19.0 0.0 7.3
23:28 6.1 4.3 88 1001.5 23.5 SW 23.5 0.8 7.4
23:29 6.1 4.3 88 1001.3 26.6 SW 26.6 0.8 7.4
23:30 6.1 4.3 88 1001.5 23.5 SW 26.6 0.8 7.4
23:31 6.2 4.4 88 1001.4 19.7 SW 26.6 0.8 7.4
23:32 6.2 4.4 88 1001.4 13.0 SW 26.6 0.8 7.4
23:33 6.1 4.3 88 1001.3 15.2 NW 26.6 0.0 7.4
23:34 6.1 4.3 88 1001.4 18.3 S 26.6 0.0 7.4
23:35 6.1 4.3 88 1001.3 17.4 W 26.6 0.0 7.4
23:36 6.1 4.3 88 1001.5 15.9 SW 26.6 0.0 7.4
23:37 6.1 4.3 88 1001.5 14.5 SW 26.6 0.0 7.4
23:39 6.0 4.2 88 1001.7 17.4 NW 26.6 0.0 7.4
23:40 6.0 4.2 88 1001.5 13.0 S 23.5 0.0 7.4
23:41 6.0 4.2 88 1001.5 10.7 SW 19.7 0.0 7.4
23:42 6.0 4.2 88 1001.4 11.4 SW 18.3 0.0 7.4
23:43 5.9 4.1 88 1001.5 9.8 N 18.3 0.0 7.4
23:44 5.9 4.1 88 1001.4 13.0 SW 17.4 0.0 7.4
23:45 5.9 4.1 88 1001.2 18.3 W 18.3 0.0 7.4
23:47 5.8 4.0 88 1001.5 13.6 SW 18.3 0.0 7.4
23:48 5.8 4.1 89 1001.5 12.1 SW 18.3 0.0 7.4
23:49 5.8 4.1 89 1001.5 13.6 SW 18.3 0.0 7.4
23:50 5.8 4.1 89 1001.5 13.0 SW 18.3 0.0 7.4
23:51 5.7 4.0 89 1001.4 15.2 W 18.3 0.0 7.4
23:53 5.7 4.0 89 1001.4 12.1 SW 19.7 0.0 7.4
23:56 5.7 4.0 89 1001.6 11.4 SW 19.7 0.0 7.4
23:57 5.7 4.0 89 1001.5 19.0 NNW 22.1 0.0 7.4
23:58 5.7 4.0 89 1001.5 15.2 W 22.1 0.0 7.4

UK - WEATHER STATION TOPSITES - UK World Weather Websites

This is a private weather station, never base important decisions or events on data from this weather station. Although every effort has been made to make the data as accurate as possible it does not meet MetOffice standards. It is proved as a guide of local weather conditions. We accept no liability for any loss which may arise from use of the data.

Copyright © Carnkie Weather 2009 - 2017.